Wetterdaten: Freitag, 23.05.2014
Datum Zeit Temp. Aussen +5cm Feuchte Auss Luftdruck Regen Sonnenschein Regendauer UV Solar Windben
23.05.2014 00:00 13,5 C 12,2 C 96 % 1008,4 hPa 0,0 l/m 0 min 0 min 0,0 UV-I 0 W/m 0,0 km/h (0 Bft)
23.05.2014 00:02 13,5 C 12,2 C 96 % 1008,6 hPa 0,0 l/m 0 min 2 min 0,0 UV-I 0 W/m 12,9 km/h (3 Bft)
23.05.2014 00:06 13,4 C 12,2 C 96 % 1008,5 hPa 0,0 l/m 0 min 0 min 0,0 UV-I 0 W/m 12,9 km/h (3 Bft)
23.05.2014 00:08 13,4 C 12,2 C 96 % 1008,6 hPa 0,0 l/m 0 min 0 min 0,0 UV-I 0 W/m 20,6 km/h (4 Bft)
23.05.2014 00:10 13,4 C 12,2 C 96 % 1008,8 hPa 0,0 l/m 0 min 0 min 0,0 UV-I 0 W/m 23,2 km/h (4 Bft)
23.05.2014 00:12 13,4 C 12,2 C 96 % 1008,8 hPa 0,0 l/m 0 min 0 min 0,0 UV-I 0 W/m 20,6 km/h (4 Bft)
23.05.2014 00:14 13,3 C 11,7 C 96 % 1008,9 hPa 0,0 l/m 0 min 0 min 0,0 UV-I 0 W/m 23,2 km/h (4 Bft)
23.05.2014 00:16 13,3 C 12,2 C 96 % 1009,0 hPa 0,0 l/m 0 min 0 min 0,0 UV-I 0 W/m 20,6 km/h (4 Bft)
23.05.2014 00:18 13,3 C 11,7 C 96 % 1009,0 hPa 0,0 l/m 0 min 0 min 0,0 UV-I 0 W/m 18,0 km/h (3 Bft)
23.05.2014 00:20 13,3 C 11,7 C 96 % 1008,9 hPa 0,0 l/m 0 min 0 min 0,0 UV-I 0 W/m 15,4 km/h (3 Bft)
23.05.2014 00:22 13,3 C 11,7 C 96 % 1008,9 hPa 0,0 l/m 0 min 0 min 0,0 UV-I 0 W/m 7,7 km/h (2 Bft)
23.05.2014 00:24 13,3 C 11,7 C 96 % 1008,8 hPa 0,0 l/m 0 min 0 min 0,0 UV-I 0 W/m 7,7 km/h (2 Bft)
23.05.2014 00:26 13,3 C 11,7 C 96 % 1008,9 hPa 0,0 l/m 0 min 0 min 0,0 UV-I 0 W/m 5,1 km/h (1 Bft)
23.05.2014 00:28 13,3 C 12,2 C 96 % 1008,9 hPa 0,0 l/m 0 min 0 min 0,0 UV-I 0 W/m 10,3 km/h (2 Bft)
23.05.2014 00:30 13,3 C 11,7 C 96 % 1008,8 hPa 0,0 l/m 0 min 0 min 0,0 UV-I 0 W/m 12,9 km/h (3 Bft)
23.05.2014 00:32 13,3 C 11,7 C 96 % 1008,7 hPa 0,0 l/m 0 min 0 min 0,0 UV-I 0 W/m 12,9 km/h (3 Bft)
23.05.2014 00:34 13,3 C 11,7 C 96 % 1008,6 hPa 0,0 l/m 0 min 0 min 0,0 UV-I 0 W/m 12,9 km/h (3 Bft)
23.05.2014 00:36 13,3 C 11,7 C 96 % 1008,6 hPa 0,0 l/m 0 min 0 min 0,0 UV-I 0 W/m 18,0 km/h (3 Bft)
23.05.2014 00:38 13,3 C 11,7 C 96 % 1008,6 hPa 0,0 l/m 0 min 0 min 0,0 UV-I 0 W/m 15,4 km/h (3 Bft)
23.05.2014 00:40 13,3 C 11,7 C 96 % 1008,5 hPa 0,0 l/m 0 min 0 min 0,0 UV-I 0 W/m 10,3 km/h (2 Bft)
23.05.2014 00:42 13,3 C 12,2 C 96 % 1008,5 hPa 0,0 l/m 0 min 0 min 0,0 UV-I 0 W/m 7,7 km/h (2 Bft)
23.05.2014 00:44 13,3 C 12,2 C 96 % 1008,4 hPa 0,0 l/m 0 min 0 min 0,0 UV-I 0 W/m 0,0 km/h (0 Bft)
23.05.2014 00:46 13,3 C 12,2 C 96 % 1008,5 hPa 0,0 l/m 0 min 0 min 0,0 UV-I 0 W/m 0,0 km/h (0 Bft)
23.05.2014 00:48 13,3 C 12,2 C 96 % 1008,4 hPa 0,0 l/m 0 min 0 min 0,0 UV-I 0 W/m 7,7 km/h (2 Bft)
23.05.2014 00:50 13,4 C 12,2 C 96 % 1008,3 hPa 0,0 l/m 0 min 0 min 0,0 UV-I 0 W/m 0,0 km/h (0 Bft)
23.05.2014 00:52 13,3 C 12,2 C 96 % 1008,3 hPa 0,0 l/m 0 min 0 min 0,0 UV-I 0 W/m 5,1 km/h (1 Bft)
23.05.2014 00:54 13,3 C 12,2 C 96 % 1008,2 hPa 0,0 l/m 0 min 0 min 0,0 UV-I 0 W/m 5,1 km/h (1 Bft)
23.05.2014 00:56 13,3 C 12,2 C 96 % 1008,0 hPa 0,0 l/m 0 min 0 min 0,0 UV-I 0 W/m 10,3 km/h (2 Bft)
23.05.2014 00:58 13,4 C 12,2 C 96 % 1007,9 hPa 0,0 l/m 0 min 0 min 0,0 UV-I 0 W/m 7,7 km/h (2 Bft)
23.05.2014 01:00 13,4 C 12,2 C 96 % 1007,9 hPa 0,0 l/m 0 min 0 min 0,0 UV-I 0 W/m 7,7 km/h (2 Bft)
23.05.2014 01:02 13,4 C 12,2 C 96 % 1008,0 hPa 0,0 l/m 0 min 0 min 0,0 UV-I 0 W/m 10,3 km/h (2 Bft)
23.05.2014 01:06 13,4 C 12,2 C 96 % 1008,1 hPa 0,0 l/m 0 min 0 min 0,0 UV-I 0 W/m 7,7 km/h (2 Bft)
23.05.2014 01:08 13,4 C 12,2 C 96 % 1008,1 hPa 0,0 l/m 0 min 0 min 0,0 UV-I 0 W/m 0,0 km/h (0 Bft)
23.05.2014 01:10 13,4 C 12,2 C 96 % 1008,0 hPa 0,0 l/m 0 min 0 min 0,0 UV-I 0 W/m 7,7 km/h (2 Bft)
23.05.2014 01:12 13,3 C 12,2 C 96 % 1008,1 hPa 0,0 l/m 0 min 0 min 0,0 UV-I 0 W/m 7,7 km/h (2 Bft)
23.05.2014 01:14 13,4 C 12,2 C 96 % 1008,4 hPa 0,0 l/m 0 min 0 min 0,0 UV-I 0 W/m 5,1 km/h (1 Bft)
23.05.2014 01:16 13,4 C 12,2 C 96 % 1008,4 hPa 0,0 l/m 0 min 0 min 0,0 UV-I 0 W/m 5,1 km/h (1 Bft)
23.05.2014 01:18 13,3 C 11,7 C 96 % 1008,4 hPa 0,0 l/m 0 min 0 min 0,0 UV-I 0 W/m 7,7 km/h (2 Bft)
23.05.2014 01:20 13,3 C 11,7 C 96 % 1008,4 hPa 0,0 l/m 0 min 0 min 0,0 UV-I 0 W/m 10,3 km/h (2 Bft)
23.05.2014 01:22 13,3 C 11,7 C 96 % 1008,4 hPa 0,0 l/m 0 min 0 min 0,0 UV-I 0 W/m 7,7 km/h (2 Bft)
23.05.2014 01:24 13,3 C 11,7 C 96 % 1008,3 hPa 0,0 l/m 0 min 0 min 0,0 UV-I 0 W/m 10,3 km/h (2 Bft)
23.05.2014 01:26 13,3 C 11,7 C 96 % 1008,3 hPa 0,0 l/m 0 min 0 min 0,0 UV-I 0 W/m 0,0 km/h (0 Bft)
23.05.2014 01:28 13,3 C 11,7 C 96 % 1008,3 hPa 0,0 l/m 0 min 0 min 0,0 UV-I 0 W/m 12,9 km/h (3 Bft)
23.05.2014 01:30 13,3 C 11,7 C 96 % 1008,3 hPa 0,0 l/m 0 min 0 min 0,0 UV-I 0 W/m 0,0 km/h (0 Bft)
23.05.2014 01:32 13,4 C 12,2 C 96 % 1008,3 hPa 0,0 l/m 0 min 0 min 0,0 UV-I 0 W/m 2,6 km/h (1 Bft)
23.05.2014 01:34 13,4 C 12,2 C 96 % 1008,4 hPa 0,0 l/m 0 min 0 min 0,0 UV-I 0 W/m 7,7 km/h (2 Bft)
23.05.2014 01:36 13,4 C 12,2 C 96 % 1008,4 hPa 0,0 l/m 0 min 0 min 0,0 UV-I 0 W/m 10,3 km/h (2 Bft)
23.05.2014 01:38 13,4 C 12,2 C 96 % 1008,4 hPa 0,0 l/m 0 min 0 min 0,0 UV-I 0 W/m 0,0 km/h (0 Bft)
23.05.2014 01:40 13,4 C 12,2 C 96 % 1008,4 hPa 0,0 l/m 0 min 0 min 0,0 UV-I 0 W/m 10,3 km/h (2 Bft)
23.05.2014 01:42 13,4 C 12,2 C 96 % 1008,4 hPa 0,0 l/m 0 min 0 min 0,0 UV-I 0 W/m 7,7 km/h (2 Bft)
23.05.2014 01:44 13,4 C 12,2 C 96 % 1008,4 hPa 0,0 l/m 0 min 0 min 0,0 UV-I 0 W/m 7,7 km/h (2 Bft)
23.05.2014 01:46 13,4 C 11,7 C 96 % 1008,3 hPa 0,0 l/m 0 min 0 min 0,0 UV-I 0 W/m 0,0 km/h (0 Bft)
23.05.2014 01:48 13,4 C 11,7 C 96 % 1008,3 hPa 0,0 l/m 0 min 0 min 0,0 UV-I 0 W/m 0,0 km/h (0 Bft)
23.05.2014 01:50 13,4 C 11,7 C 96 % 1008,3 hPa 0,0 l/m 0 min 0 min 0,0 UV-I 0 W/m 10,3 km/h (2 Bft)
23.05.2014 01:52 13,4 C 11,7 C 96 % 1008,2 hPa 0,0 l/m 0 min 0 min 0,0 UV-I 0 W/m 7,7 km/h (2 Bft)
23.05.2014 01:54 13,4 C 11,7 C 96 % 1008,2 hPa 0,0 l/m 0 min 0 min 0,0 UV-I 0 W/m 5,1 km/h (1 Bft)
23.05.2014 01:56 13,4 C 12,2 C 96 % 1008,3 hPa 0,0 l/m 0 min 0 min 0,0 UV-I 0 W/m 7,7 km/h (2 Bft)
23.05.2014 01:58 13,4 C 11,7 C 96 % 1008,4 hPa 0,0 l/m 0 min 0 min 0,0 UV-I 0 W/m 7,7 km/h (2 Bft)
23.05.2014 02:00 13,3 C 11,7 C 96 % 1008,3 hPa 0,0 l/m 0 min 0 min 0,0 UV-I 0 W/m 0,0 km/h (0 Bft)
23.05.2014 02:02 13,3 C 11,7 C 96 % 1008,3 hPa 0,0 l/m 0 min 0 min 0,0 UV-I 0 W/m 2,6 km/h (1 Bft)
23.05.2014 02:06 13,3 C 11,7 C 96 % 1008,3 hPa 0,0 l/m 0 min 0 min 0,0 UV-I 0 W/m 2,6 km/h (1 Bft)
23.05.2014 02:08 13,3 C 11,7 C 96 % 1008,2 hPa 0,0 l/m 0 min 0 min 0,0 UV-I 0 W/m 0,0 km/h (0 Bft)
23.05.2014 02:10 13,3 C 11,7 C 96 % 1008,2 hPa 0,0 l/m 0 min 0 min 0,0 UV-I 0 W/m 0,0 km/h (0 Bft)
23.05.2014 02:12 13,3 C 11,7 C 96 % 1008,2 hPa 0,0 l/m 0 min 0 min 0,0 UV-I 0 W/m 2,6 km/h (1 Bft)
23.05.2014 02:14 13,3 C 11,7 C 96 % 1008,1 hPa 0,0 l/m 0 min 0 min 0,0 UV-I 0 W/m 0,0 km/h (0 Bft)
23.05.2014 02:16 13,3 C 11,7 C 96 % 1008,0 hPa 0,0 l/m 0 min 0 min 0,0 UV-I 0 W/m 0,0 km/h (0 Bft)
23.05.2014 02:18 13,3 C 11,7 C 96 % 1007,9 hPa 0,0 l/m 0 min 0 min 0,0 UV-I 0 W/m 0,0 km/h (0 Bft)
23.05.2014 02:20 13,3 C 11,7 C 96 % 1007,8 hPa 0,0 l/m 0 min 0 min 0,0 UV-I 0 W/m 0,0 km/h (0 Bft)
23.05.2014 02:22 13,3 C 11,7 C 96 % 1007,8 hPa 0,0 l/m 0 min 0 min 0,0 UV-I 0 W/m 7,7 km/h (2 Bft)
23.05.2014 02:24 13,3 C 12,2 C 96 % 1007,8 hPa 0,0 l/m 0 min 0 min 0,0 UV-I 0 W/m 5,1 km/h (1 Bft)
23.05.2014 02:26 13,3 C 12,2 C 96 % 1008,0 hPa 0,0 l/m 0 min 0 min 0,0 UV-I 0 W/m 10,3 km/h (2 Bft)
23.05.2014 02:28 13,3 C 12,2 C 96 % 1008,2 hPa 0,0 l/m 0 min 0 min 0,0 UV-I 0 W/m 5,1 km/h (1 Bft)
23.05.2014 02:30 13,3 C 12,2 C 96 % 1008,2 hPa 0,0 l/m 0 min 0 min 0,0 UV-I 0 W/m 7,7 km/h (2 Bft)
23.05.2014 02:32 13,3 C 12,2 C 96 % 1008,2 hPa 0,0 l/m 0 min 0 min 0,0 UV-I 0 W/m 10,3 km/h (2 Bft)
23.05.2014 02:34 13,3 C 12,2 C 96 % 1008,2 hPa 0,0 l/m 0 min 0 min 0,0 UV-I 0 W/m 7,7 km/h (2 Bft)
23.05.2014 02:36 13,3 C 12,2 C 96 % 1008,3 hPa 0,0 l/m 0 min 0 min 0,0 UV-I 0 W/m 7,7 km/h (2 Bft)
23.05.2014 02:38 13,3 C 12,2 C 96 % 1008,3 hPa 0,0 l/m 0 min 0 min 0,0 UV-I 0 W/m 7,7 km/h (2 Bft)
23.05.2014 02:40 13,3 C 12,2 C 96 % 1008,3 hPa 0,0 l/m 0 min 0 min 0,0 UV-I 0 W/m 5,1 km/h (1 Bft)
23.05.2014 02:42 13,3 C 11,7 C 97 % 1008,2 hPa 0,0 l/m 0 min 0 min 0,0 UV-I 0 W/m 2,6 km/h (1 Bft)
23.05.2014 02:44 13,3 C 11,7 C 97 % 1008,0 hPa 0,0 l/m 0 min 0 min 0,0 UV-I 0 W/m 0,0 km/h (0 Bft)
23.05.2014 02:46 13,3 C 11,7 C 97 % 1007,9 hPa 0,0 l/m 0 min 0 min 0,0 UV-I 0 W/m 0,0 km/h (0 Bft)
23.05.2014 02:48 13,3 C 11,7 C 97 % 1007,9 hPa 0,0 l/m 0 min 0 min 0,0 UV-I 0 W/m 2,6 km/h (1 Bft)
23.05.2014 02:50 13,3 C 11,7 C 97 % 1007,8 hPa 0,0 l/m 0 min 0 min 0,0 UV-I 0 W/m 0,0 km/h (0 Bft)
23.05.2014 02:52 13,3 C 11,7 C 97 % 1007,8 hPa 0,0 l/m 0 min 0 min 0,0 UV-I 0 W/m 0,0 km/h (0 Bft)
23.05.2014 02:54 13,3 C 11,7 C 97 % 1007,8 hPa 0,0 l/m 0 min 0 min 0,0 UV-I 0 W/m 0,0 km/h (0 Bft)
23.05.2014 02:56 13,2 C 11,7 C 97 % 1007,8 hPa 0,0 l/m 0 min 0 min 0,0 UV-I 0 W/m 0,0 km/h (0 Bft)
23.05.2014 02:58 13,2 C 11,7 C 97 % 1007,8 hPa 0,0 l/m 0 min 0 min 0,0 UV-I 0 W/m 7,7 km/h (2 Bft)
23.05.2014 03:00 13,2 C 11,7 C 97 % 1007,8 hPa 0,0 l/m 0 min 0 min 0,0 UV-I 0 W/m 7,7 km/h (2 Bft)
23.05.2014 03:02 13,2 C 11,7 C 97 % 1007,9 hPa 0,0 l/m 0 min 0 min 0,0 UV-I 0 W/m 12,9 km/h (3 Bft)
23.05.2014 03:06 13,2 C 11,7 C 97 % 1007,8 hPa 0,0 l/m 0 min 0 min 0,0 UV-I 0 W/m 10,3 km/h (2 Bft)
23.05.2014 03:08 13,1 C 11,7 C 97 % 1007,8 hPa 0,0 l/m 0 min 0 min 0,0 UV-I 0 W/m 0,0 km/h (0 Bft)
23.05.2014 03:10 13,1 C 11,7 C 97 % 1007,8 hPa 0,0 l/m 0 min 0 min 0,0 UV-I 0 W/m 2,6 km/h (1 Bft)
23.05.2014 03:12 13,1 C 11,7 C 97 % 1007,8 hPa 0,0 l/m 0 min 0 min 0,0 UV-I 0 W/m 0,0 km/h (0 Bft)
23.05.2014 03:14 13,1 C 11,7 C 97 % 1007,9 hPa 0,0 l/m 0 min 0 min 0,0 UV-I 0 W/m 0,0 km/h (0 Bft)
23.05.2014 03:16 13,1 C 11,7 C 97 % 1007,9 hPa 0,0 l/m 0 min 0 min 0,0 UV-I 0 W/m 5,1 km/h (1 Bft)
23.05.2014 03:18 13,1 C 11,7 C 97 % 1008,0 hPa 0,0 l/m 0 min 0 min 0,0 UV-I 0 W/m 0,0 km/h (0 Bft)
23.05.2014 03:20 13,1 C 11,7 C 97 % 1008,0 hPa 0,0 l/m 0 min 0 min 0,0 UV-I 0 W/m 0,0 km/h (0 Bft)
23.05.2014 03:22 13,1 C 11,7 C 97 % 1007,9 hPa 0,0 l/m 0 min 0 min 0,0 UV-I 0 W/m 0,0 km/h (0 Bft)
23.05.2014 03:24 13,1 C 11,7 C 97 % 1007,8 hPa 0,0 l/m 0 min 0 min 0,0 UV-I 0 W/m 0,0 km/h (0 Bft)
23.05.2014 03:26 13,1 C 11,7 C 97 % 1007,7 hPa 0,0 l/m 0 min 0 min 0,0 UV-I 0 W/m 0,0 km/h (0 Bft)
23.05.2014 03:28 13,1 C 11,7 C 97 % 1007,7 hPa 0,0 l/m 0 min 0 min 0,0 UV-I 0 W/m 0,0 km/h (0 Bft)
23.05.2014 03:30 13,1 C 11,7 C 97 % 1007,8 hPa 0,0 l/m 0 min 0 min 0,0 UV-I 0 W/m 2,6 km/h (1 Bft)
23.05.2014 03:32 13,0 C 11,7 C 97 % 1007,8 hPa 0,0 l/m 0 min 0 min 0,0 UV-I 0 W/m 0,0 km/h (0 Bft)
23.05.2014 03:34 13,0 C 11,7 C 97 % 1007,7 hPa 0,0 l/m 0 min 0 min 0,0 UV-I 0 W/m 0,0 km/h (0 Bft)
23.05.2014 03:36 13,0 C 11,7 C 97 % 1007,7 hPa 0,0 l/m 0 min 0 min 0,0 UV-I 0 W/m 5,1 km/h (1 Bft)
23.05.2014 03:38 13,0 C 11,7 C 97 % 1007,9 hPa 0,0 l/m 0 min 0 min 0,0 UV-I 0 W/m 0,0 km/h (0 Bft)
23.05.2014 03:40 12,9 C 11,7 C 97 % 1008,1 hPa 0,0 l/m 0 min 0 min 0,0 UV-I 0 W/m 0,0 km/h (0 Bft)
23.05.2014 03:42 12,9 C 11,7 C 97 % 1008,1 hPa 0,0 l/m 0 min 0 min 0,0 UV-I 0 W/m 0,0 km/h (0 Bft)
23.05.2014 03:44 13,0 C 11,7 C 97 % 1008,2 hPa 0,0 l/m 0 min 0 min 0,0 UV-I 0 W/m 0,0 km/h (0 Bft)
23.05.2014 03:46 12,9 C 11,7 C 97 % 1008,2 hPa 0,0 l/m 0 min 0 min 0,0 UV-I 0 W/m 0,0 km/h (0 Bft)
23.05.2014 03:48 12,9 C 11,7 C 97 % 1008,2 hPa 0,0 l/m 0 min 0 min 0,0 UV-I 0 W/m 0,0 km/h (0 Bft)
23.05.2014 03:50 12,9 C 11,7 C 97 % 1008,2 hPa 0,0 l/m 0 min 0 min 0,0 UV-I 0 W/m 0,0 km/h (0 Bft)
23.05.2014 03:52 12,9 C 11,7 C 97 % 1008,2 hPa 0,0 l/m 0 min 0 min 0,0 UV-I 0 W/m 0,0 km/h (0 Bft)
23.05.2014 03:54 12,9 C 11,7 C 97 % 1008,2 hPa 0,0 l/m 0 min 0 min 0,0 UV-I 0 W/m 0,0 km/h (0 Bft)
23.05.2014 03:56 12,9 C 11,7 C 97 % 1008,1 hPa 0,0 l/m 0 min 0 min 0,0 UV-I 0 W/m 0,0 km/h (0 Bft)
23.05.2014 03:58 13,0 C 11,7 C 97 % 1008,1 hPa 0,0 l/m 0 min 0 min 0,0 UV-I 0 W/m 0,0 km/h (0 Bft)
23.05.2014 04:00 13,0 C 11,7 C 97 % 1008,2 hPa 0,0 l/m 0 min 0 min 0,0 UV-I 0 W/m 0,0 km/h (0 Bft)
23.05.2014 04:05 13,0 C 11,7 C 98 % 1007,9 hPa 0,0 l/m 0 min 0 min 0,0 UV-I 0 W/m 2,6 km/h (1 Bft)
23.05.2014 04:06 13,0 C 11,7 C 98 % 1007,8 hPa 0,0 l/m 0 min 0 min 0,0 UV-I 0 W/m 2,6 km/h (1 Bft)
23.05.2014 04:08 13,1 C 11,7 C 98 % 1007,8 hPa 0,0 l/m 0 min 0 min 0,0 UV-I 0 W/m 0,0 km/h (0 Bft)
23.05.2014 04:10 13,1 C 11,7 C 98 % 1007,9 hPa 0,0 l/m 0 min 0 min 0,0 UV-I 0 W/m 0,0 km/h (0 Bft)
23.05.2014 04:12 13,1 C 11,7 C 98 % 1007,9 hPa 0,0 l/m 0 min 0 min 0,0 UV-I 0 W/m 0,0 km/h (0 Bft)
23.05.2014 04:14 13,1 C 11,7 C 98 % 1007,8 hPa 0,0 l/m 0 min 0 min 0,0 UV-I 0 W/m 2,6 km/h (1 Bft)
23.05.2014 04:16 13,1 C 11,7 C 98 % 1007,9 hPa 0,0 l/m 0 min 0 min 0,0 UV-I 0 W/m 2,6 km/h (1 Bft)
23.05.2014 04:18 13,1 C 12,2 C 98 % 1007,9 hPa 0,0 l/m 0 min 0 min 0,0 UV-I 0 W/m 2,6 km/h (1 Bft)
23.05.2014 04:20 13,1 C 11,7 C 98 % 1008,0 hPa 0,0 l/m 0 min 0 min 0,0 UV-I 0 W/m 7,7 km/h (2 Bft)
23.05.2014 04:22 13,2 C 11,7 C 98 % 1008,0 hPa 0,0 l/m 0 min 0 min 0,0 UV-I 0 W/m 2,6 km/h (1 Bft)
23.05.2014 04:24 13,1 C 11,7 C 98 % 1008,0 hPa 0,0 l/m 0 min 0 min 0,0 UV-I 0 W/m 0,0 km/h (0 Bft)
23.05.2014 04:26 13,2 C 12,2 C 98 % 1008,0 hPa 0,0 l/m 0 min 0 min 0,0 UV-I 0 W/m 5,1 km/h (1 Bft)
23.05.2014 04:28 13,2 C 12,2 C 98 % 1008,1 hPa 0,0 l/m 0 min 0 min 0,0 UV-I 0 W/m 12,9 km/h (3 Bft)
23.05.2014 04:30 13,2 C 12,2 C 98 % 1008,0 hPa 0,0 l/m 0 min 0 min 0,0 UV-I 0 W/m 7,7 km/h (2 Bft)
23.05.2014 04:32 13,2 C 12,2 C 98 % 1007,9 hPa 0,0 l/m 0 min 0 min 0,0 UV-I 0 W/m 5,1 km/h (1 Bft)
23.05.2014 04:34 13,2 C 12,2 C 98 % 1007,8 hPa 0,0 l/m 0 min 0 min 0,0 UV-I 0 W/m 7,7 km/h (2 Bft)
23.05.2014 04:36 13,2 C 12,2 C 98 % 1007,8 hPa 0,0 l/m 0 min 0 min 0,0 UV-I 0 W/m 2,6 km/h (1 Bft)
23.05.2014 04:38 13,2 C 12,2 C 98 % 1007,8 hPa 0,0 l/m 0 min 0 min 0,0 UV-I 0 W/m 0,0 km/h (0 Bft)
23.05.2014 04:40 13,2 C 12,2 C 98 % 1007,7 hPa 0,0 l/m 0 min 0 min 0,0 UV-I 0 W/m 0,0 km/h (0 Bft)
23.05.2014 04:42 13,2 C 12,2 C 98 % 1007,6 hPa 0,0 l/m 0 min 0 min 0,0 UV-I 0 W/m 0,0 km/h (0 Bft)
23.05.2014 04:44 13,2 C 12,2 C 98 % 1007,6 hPa 0,0 l/m 0 min 0 min 0,0 UV-I 0 W/m 0,0 km/h (0 Bft)
23.05.2014 04:46 13,2 C 12,2 C 98 % 1007,7 hPa 0,0 l/m 0 min 0 min 0,0 UV-I 0 W/m 5,1 km/h (1 Bft)
23.05.2014 04:48 13,2 C 11,7 C 98 % 1007,6 hPa 0,0 l/m 0 min 0 min 0,0 UV-I 0 W/m 7,7 km/h (2 Bft)
23.05.2014 04:50 13,2 C 11,7 C 98 % 1007,6 hPa 0,0 l/m 0 min 0 min 0,0 UV-I 0 W/m 0,0 km/h (0 Bft)
23.05.2014 04:52 13,2 C 11,7 C 98 % 1007,5 hPa 0,0 l/m 0 min 0 min 0,0 UV-I 0 W/m 0,0 km/h (0 Bft)
23.05.2014 04:54 13,2 C 11,7 C 98 % 1007,4 hPa 0,0 l/m 0 min 0 min 0,0 UV-I 0 W/m 0,0 km/h (0 Bft)
23.05.2014 04:56 13,2 C 11,7 C 98 % 1007,4 hPa 0,0 l/m 0 min 0 min 0,0 UV-I 0 W/m 0,0 km/h (0 Bft)
23.05.2014 04:58 13,2 C 11,7 C 98 % 1007,4 hPa 0,0 l/m 0 min 0 min 0,0 UV-I 0 W/m 0,0 km/h (0 Bft)
23.05.2014 05:00 13,1 C 11,7 C 98 % 1007,3 hPa 0,0 l/m 0 min 0 min 0,0 UV-I 0 W/m 7,7 km/h (2 Bft)
23.05.2014 05:02 13,1 C 11,7 C 98 % 1007,5 hPa 0,0 l/m 0 min 0 min 0,0 UV-I 0 W/m 0,0 km/h (0 Bft)
23.05.2014 05:06 13,1 C 11,7 C 98 % 1007,4 hPa 0,0 l/m 0 min 0 min 0,0 UV-I 0 W/m 10,3 km/h (2 Bft)
23.05.2014 05:08 13,1 C 11,7 C 98 % 1007,4 hPa 0,0 l/m 0 min 0 min 0,0 UV-I 0 W/m 5,1 km/h (1 Bft)
23.05.2014 05:10 13,1 C 11,7 C 98 % 1007,5 hPa 0,0 l/m 0 min 0 min 0,0 UV-I 0 W/m 10,3 km/h (2 Bft)
23.05.2014 05:12 13,1 C 11,7 C 98 % 1007,6 hPa 0,0 l/m 0 min 0 min 0,0 UV-I 0 W/m 0,0 km/h (0 Bft)
23.05.2014 05:14 13,1 C 11,7 C 98 % 1007,6 hPa 0,0 l/m 0 min 0 min 0,0 UV-I 0 W/m 5,1 km/h (1 Bft)
23.05.2014 05:16 13,1 C 11,7 C 98 % 1007,6 hPa 0,0 l/m 0 min 0 min 0,0 UV-I 0 W/m 0,0 km/h (0 Bft)
23.05.2014 05:18 13,1 C 11,7 C 98 % 1007,5 hPa 0,0 l/m 0 min 0 min 0,0 UV-I 0 W/m 0,0 km/h (0 Bft)
23.05.2014 05:20 13,1 C 11,7 C 98 % 1007,5 hPa 0,0 l/m 0 min 0 min 0,0 UV-I 0 W/m 0,0 km/h (0 Bft)
23.05.2014 05:22 13,1 C 11,7 C 98 % 1007,5 hPa 0,0 l/m 0 min 0 min 0,0 UV-I 0 W/m 7,7 km/h (2 Bft)
23.05.2014 05:24 13,1 C 11,7 C 98 % 1007,5 hPa 0,0 l/m 0 min 0 min 0,0 UV-I 0 W/m 7,7 km/h (2 Bft)
23.05.2014 05:26 13,1 C 11,7 C 98 % 1007,3 hPa 0,0 l/m 0 min 0 min 0,0 UV-I 0 W/m 0,0 km/h (0 Bft)
23.05.2014 05:28 13,1 C 11,7 C 98 % 1007,2 hPa 0,0 l/m 0 min 0 min 0,0 UV-I 0 W/m 0,0 km/h (0 Bft)
23.05.2014 05:30 13,1 C 11,7 C 98 % 1007,2 hPa 0,0 l/m 0 min 0 min 0,0 UV-I 0 W/m 0,0 km/h (0 Bft)
23.05.2014 05:32 13,1 C 11,7 C 98 % 1007,1 hPa 0,0 l/m 0 min 0 min 0,0 UV-I 0 W/m 0,0 km/h (0 Bft)
23.05.2014 05:34 13,1 C 11,7 C 98 % 1007,0 hPa 0,0 l/m 0 min 0 min 0,0 UV-I 0 W/m 0,0 km/h (0 Bft)
23.05.2014 05:36 13,1 C 11,7 C 98 % 1007,0 hPa 0,0 l/m 0 min 0 min 0,0 UV-I 0 W/m 0,0 km/h (0 Bft)
23.05.2014 05:38 13,1 C 11,7 C 98 % 1006,9 hPa 0,0 l/m 0 min 0 min 0,0 UV-I 5 W/m 0,0 km/h (0 Bft)
23.05.2014 05:40 13,1 C 11,7 C 98 % 1006,9 hPa 0,0 l/m 0 min 0 min 0,0 UV-I 5 W/m 0,0 km/h (0 Bft)
23.05.2014 05:42 13,1 C 11,7 C 98 % 1006,9 hPa 0,0 l/m 0 min 0 min 0,0 UV-I 5 W/m 0,0 km/h (0 Bft)
23.05.2014 05:44 13,1 C 11,7 C 97 % 1007,0 hPa 0,0 l/m 0 min 0 min 0,0 UV-I 5 W/m 0,0 km/h (0 Bft)
23.05.2014 05:46 13,0 C 11,7 C 97 % 1007,0 hPa 0,0 l/m 0 min 0 min 0,0 UV-I 5 W/m 0,0 km/h (0 Bft)
23.05.2014 05:48 13,0 C 11,7 C 97 % 1007,0 hPa 0,0 l/m 0 min 0 min 0,0 UV-I 5 W/m 0,0 km/h (0 Bft)
23.05.2014 05:50 13,0 C 11,7 C 97 % 1007,0 hPa 0,0 l/m 0 min 0 min 0,0 UV-I 7 W/m 0,0 km/h (0 Bft)
23.05.2014 05:52 13,0 C 11,7 C 97 % 1007,1 hPa 0,0 l/m 0 min 0 min 0,0 UV-I 7 W/m 0,0 km/h (0 Bft)
23.05.2014 05:54 12,9 C 11,7 C 97 % 1007,2 hPa 0,0 l/m 0 min 0 min 0,0 UV-I 9 W/m 0,0 km/h (0 Bft)
23.05.2014 05:56 12,9 C 11,7 C 97 % 1007,3 hPa 0,0 l/m 0 min 0 min 0,0 UV-I 9 W/m 0,0 km/h (0 Bft)
23.05.2014 05:58 12,9 C 11,7 C 97 % 1007,2 hPa 0,0 l/m 0 min 0 min 0,0 UV-I 11 W/m 0,0 km/h (0 Bft)
23.05.2014 06:00 12,9 C 11,7 C 97 % 1007,5 hPa 0,0 l/m 0 min 0 min 0,0 UV-I 11 W/m 0,0 km/h (0 Bft)
23.05.2014 06:02 12,9 C 11,7 C 97 % 1007,5 hPa 0,0 l/m 0 min 0 min 0,0 UV-I 11 W/m 0,0 km/h (0 Bft)
23.05.2014 06:06 12,9 C 11,7 C 97 % 1007,3 hPa 0,0 l/m 0 min 0 min 0,0 UV-I 9 W/m 0,0 km/h (0 Bft)
23.05.2014 06:08 12,9 C 11,7 C 98 % 1007,4 hPa 0,0 l/m 0 min 0 min 0,0 UV-I 9 W/m 0,0 km/h (0 Bft)
23.05.2014 06:10 12,9 C 11,7 C 97 % 1007,5 hPa 0,0 l/m 0 min 0 min 0,0 UV-I 9 W/m 0,0 km/h (0 Bft)
23.05.2014 06:12 12,9 C 11,7 C 98 % 1007,5 hPa 0,0 l/m 0 min 0 min 0,0 UV-I 11 W/m 2,6 km/h (1 Bft)
23.05.2014 06:14 13,0 C 11,7 C 98 % 1007,6 hPa 0,0 l/m 0 min 0 min 0,0 UV-I 11 W/m 0,0 km/h (0 Bft)
23.05.2014 06:16 13,0 C 11,7 C 98 % 1007,5 hPa 0,0 l/m 0 min 0 min 0,0 UV-I 14 W/m 0,0 km/h (0 Bft)
23.05.2014 06:18 13,0 C 11,7 C 98 % 1007,6 hPa 0,0 l/m 0 min 0 min 0,0 UV-I 14 W/m 0,0 km/h (0 Bft)
23.05.2014 06:20 13,1 C 11,7 C 98 % 1007,7 hPa 0,0 l/m 0 min 0 min 0,0 UV-I 12 W/m 5,1 km/h (1 Bft)
23.05.2014 06:22 13,1 C 11,7 C 98 % 1007,8 hPa 0,0 l/m 0 min 0 min 0,0 UV-I 12 W/m 5,1 km/h (1 Bft)
23.05.2014 06:24 13,1 C 12,2 C 98 % 1007,9 hPa 0,0 l/m 0 min 0 min 0,0 UV-I 12 W/m 7,7 km/h (2 Bft)
23.05.2014 06:26 13,1 C 12,2 C 98 % 1007,9 hPa 0,0 l/m 0 min 0 min 0,0 UV-I 14 W/m 7,7 km/h (2 Bft)
23.05.2014 06:28 13,1 C 12,2 C 98 % 1007,9 hPa 0,0 l/m 0 min 0 min 0,0 UV-I 14 W/m 5,1 km/h (1 Bft)
23.05.2014 06:30 13,1 C 12,2 C 98 % 1008,0 hPa 0,0 l/m 0 min 0 min 0,0 UV-I 16 W/m 7,7 km/h (2 Bft)
23.05.2014 06:32 13,1 C 12,2 C 98 % 1007,9 hPa 0,0 l/m 0 min 0 min 0,0 UV-I 19 W/m 7,7 km/h (2 Bft)
23.05.2014 06:34 13,2 C 12,2 C 98 % 1007,8 hPa 0,0 l/m 0 min 0 min 0,0 UV-I 21 W/m 7,7 km/h (2 Bft)
23.05.2014 06:36 13,2 C 12,2 C 98 % 1007,8 hPa 0,0 l/m 0 min 0 min 0,0 UV-I 23 W/m 7,7 km/h (2 Bft)
23.05.2014 06:38 13,2 C 12,2 C 98 % 1007,8 hPa 0,0 l/m 0 min 0 min 0,0 UV-I 25 W/m 5,1 km/h (1 Bft)
23.05.2014 06:40 13,2 C 12,2 C 98 % 1007,8 hPa 0,0 l/m 0 min 0 min 0,0 UV-I 25 W/m 7,7 km/h (2 Bft)
23.05.2014 06:42 13,2 C 12,2 C 98 % 1007,9 hPa 0,0 l/m 0 min 0 min 0,0 UV-I 25 W/m 7,7 km/h (2 Bft)
23.05.2014 06:44 13,2 C 12,2 C 98 % 1007,9 hPa 0,0 l/m 0 min 0 min 0,0 UV-I 26 W/m 0,0 km/h (0 Bft)
23.05.2014 06:46 13,2 C 12,2 C 98 % 1007,9 hPa 0,0 l/m 0 min 0 min 0,0 UV-I 28 W/m 2,6 km/h (1 Bft)
23.05.2014 06:48 13,3 C 12,2 C 98 % 1007,8 hPa 0,0 l/m 0 min 0 min 0,0 UV-I 30 W/m 5,1 km/h (1 Bft)
23.05.2014 06:50 13,3 C 12,2 C 98 % 1007,9 hPa 0,0 l/m 0 min 0 min 0,0 UV-I 32 W/m 2,6 km/h (1 Bft)
23.05.2014 06:52 13,3 C 12,2 C 98 % 1007,8 hPa 0,0 l/m 0 min 0 min 0,0 UV-I 35 W/m 0,0 km/h (0 Bft)
23.05.2014 06:54 13,3 C 12,2 C 98 % 1007,9 hPa 0,0 l/m 0 min 0 min 0,0 UV-I 37 W/m 2,6 km/h (1 Bft)
23.05.2014 06:56 13,3 C 12,2 C 98 % 1007,9 hPa 0,0 l/m 0 min 0 min 0,0 UV-I 39 W/m 0,0 km/h (0 Bft)
23.05.2014 06:58 13,4 C 12,2 C 98 % 1007,9 hPa 0,0 l/m 0 min 0 min 0,0 UV-I 39 W/m 0,0 km/h (0 Bft)
23.05.2014 07:00 13,4 C 12,2 C 98 % 1007,9 hPa 0,0 l/m 0 min 0 min 0,0 UV-I 35 W/m 0,0 km/h (0 Bft)
23.05.2014 07:02 13,4 C 12,2 C 98 % 1007,8 hPa 0,0 l/m 0 min 0 min 0,0 UV-I 32 W/m 0,0 km/h (0 Bft)
23.05.2014 07:06 13,4 C 12,2 C 98 % 1007,8 hPa 0,0 l/m 0 min 0 min 0,0 UV-I 23 W/m 0,0 km/h (0 Bft)
23.05.2014 07:08 13,4 C 12,2 C 98 % 1007,8 hPa 0,0 l/m 0 min 0 min 0,0 UV-I 21 W/m 2,6 km/h (1 Bft)
23.05.2014 07:10 13,4 C 12,2 C 98 % 1007,9 hPa 0,0 l/m 0 min 0 min 0,0 UV-I 21 W/m 0,0 km/h (0 Bft)
23.05.2014 07:12 13,4 C 12,2 C 98 % 1007,8 hPa 0,0 l/m 0 min 0 min 0,0 UV-I 23 W/m 0,0 km/h (0 Bft)
23.05.2014 07:14 13,4 C 12,2 C 98 % 1007,9 hPa 0,0 l/m 0 min 0 min 0,0 UV-I 21 W/m 0,0 km/h (0 Bft)
23.05.2014 07:16 13,4 C 12,2 C 98 % 1007,9 hPa 0,0 l/m 0 min 0 min 0,0 UV-I 21 W/m 0,0 km/h (0 Bft)
23.05.2014 07:18 13,4 C 12,2 C 98 % 1008,0 hPa 0,0 l/m 0 min 0 min 0,0 UV-I 21 W/m 7,7 km/h (2 Bft)
23.05.2014 07:20 13,4 C 12,2 C 98 % 1007,9 hPa 0,0 l/m 0 min 0 min 0,0 UV-I 23 W/m 2,6 km/h (1 Bft)
23.05.2014 07:22 13,4 C 12,2 C 98 % 1007,9 hPa 0,0 l/m 0 min 0 min 0,0 UV-I 25 W/m 7,7 km/h (2 Bft)
23.05.2014 07:24 13,4 C 12,2 C 97 % 1007,9 hPa 0,0 l/m 0 min 0 min 0,0 UV-I 25 W/m 10,3 km/h (2 Bft)
23.05.2014 07:26 13,4 C 12,2 C 97 % 1008,1 hPa 0,0 l/m 0 min 0 min 0,0 UV-I 25 W/m 10,3 km/h (2 Bft)
23.05.2014 07:28 13,4 C 12,2 C 97 % 1008,2 hPa 0,0 l/m 0 min 0 min 0,0 UV-I 25 W/m 7,7 km/h (2 Bft)
23.05.2014 07:30 13,4 C 12,2 C 97 % 1008,2 hPa 0,0 l/m 0 min 0 min 0,0 UV-I 25 W/m 10,3 km/h (2 Bft)
23.05.2014 07:32 13,5 C 12,2 C 97 % 1008,3 hPa 0,0 l/m 0 min 0 min 0,0 UV-I 25 W/m 2,6 km/h (1 Bft)
23.05.2014 07:34 13,5 C 12,2 C 97 % 1008,3 hPa 0,0 l/m 0 min 0 min 0,0 UV-I 25 W/m 0,0 km/h (0 Bft)
23.05.2014 07:36 13,5 C 12,2 C 97 % 1008,3 hPa 0,0 l/m 0 min 0 min 0,0 UV-I 23 W/m 0,0 km/h (0 Bft)
23.05.2014 07:38 13,5 C 12,2 C 97 % 1008,4 hPa 0,0 l/m 0 min 0 min 0,0 UV-I 23 W/m 2,6 km/h (1 Bft)
23.05.2014 07:40 13,6 C 12,2 C 97 % 1008,4 hPa 0,0 l/m 0 min 0 min 0,0 UV-I 23 W/m 7,7 km/h (2 Bft)
23.05.2014 07:42 13,6 C 12,2 C 97 % 1008,5 hPa 0,0 l/m 0 min 0 min 0,0 UV-I 25 W/m 5,1 km/h (1 Bft)
23.05.2014 07:44 13,6 C 12,2 C 97 % 1008,5 hPa 0,0 l/m 0 min 0 min 0,0 UV-I 25 W/m 2,6 km/h (1 Bft)
23.05.2014 07:46 13,6 C 12,2 C 97 % 1008,5 hPa 0,0 l/m 0 min 0 min 0,0 UV-I 25 W/m 10,3 km/h (2 Bft)
23.05.2014 07:48 13,6 C 12,2 C 97 % 1008,5 hPa 0,0 l/m 0 min 0 min 0,0 UV-I 25 W/m 10,3 km/h (2 Bft)
23.05.2014 07:50 13,6 C 12,2 C 97 % 1008,5 hPa 0,0 l/m 0 min 0 min 0,0 UV-I 26 W/m 0,0 km/h (0 Bft)
23.05.2014 07:52 13,6 C 12,2 C 97 % 1008,5 hPa 0,0 l/m 0 min 0 min 0,0 UV-I 28 W/m 7,7 km/h (2 Bft)
23.05.2014 07:54 13,6 C 12,2 C 97 % 1008,6 hPa 0,0 l/m 0 min 2 min 0,0 UV-I 30 W/m 7,7 km/h (2 Bft)
23.05.2014 07:56 13,6 C 12,2 C 97 % 1008,5 hPa 0,0 l/m 0 min 2 min 0,0 UV-I 33 W/m 7,7 km/h (2 Bft)
23.05.2014 07:58 13,7 C 12,2 C 97 % 1008,5 hPa 0,0 l/m 0 min 2 min 0,0 UV-I 33 W/m 5,1 km/h (1 Bft)
23.05.2014 08:00 13,7 C 12,2 C 97 % 1008,5 hPa 0,0 l/m 0 min 2 min 0,0 UV-I 33 W/m 2,6 km/h (1 Bft)
23.05.2014 08:02 13,7 C 12,2 C 97 % 1008,5 hPa 0,0 l/m 0 min 2 min 0,0 UV-I 33 W/m 0,0 km/h (0 Bft)
23.05.2014 08:06 13,7 C 12,2 C 97 % 1008,5 hPa 0,2 l/m 0 min 2 min 0,0 UV-I 32 W/m 5,1 km/h (1 Bft)
23.05.2014 08:08 13,7 C 12,2 C 97 % 1008,5 hPa 0,0 l/m 0 min 2 min 0,0 UV-I 33 W/m 0,0 km/h (0 Bft)
23.05.2014 08:10 13,7 C 12,2 C 97 % 1008,5 hPa 0,0 l/m 0 min 2 min 0,0 UV-I 35 W/m 0,0 km/h (0 Bft)
23.05.2014 08:12 13,7 C 12,2 C 97 % 1008,5 hPa 0,0 l/m 0 min 2 min 0,0 UV-I 40 W/m 0,0 km/h (0 Bft)
23.05.2014 08:14 13,7 C 12,2 C 97 % 1008,4 hPa 0,0 l/m 0 min 2 min 0,0 UV-I 44 W/m 0,0 km/h (0 Bft)
23.05.2014 08:16 13,8 C 12,8 C 97 % 1008,5 hPa 0,0 l/m 0 min 2 min 0,0 UV-I 51 W/m 0,0 km/h (0 Bft)
23.05.2014 08:18 13,8 C 12,8 C 97 % 1008,4 hPa 0,0 l/m 0 min 2 min 0,0 UV-I 62 W/m 0,0 km/h (0 Bft)
23.05.2014 08:20 13,8 C 12,8 C 97 % 1008,4 hPa 0,0 l/m 0 min 2 min 0,0 UV-I 65 W/m 0,0 km/h (0 Bft)
23.05.2014 08:22 13,8 C 12,8 C 97 % 1008,5 hPa 0,0 l/m 0 min 2 min 0,0 UV-I 65 W/m 0,0 km/h (0 Bft)
23.05.2014 08:24 13,9 C 12,8 C 97 % 1008,5 hPa 0,0 l/m 0 min 2 min 0,0 UV-I 65 W/m 0,0 km/h (0 Bft)
23.05.2014 08:26 13,9 C 12,8 C 97 % 1008,6 hPa 0,0 l/m 0 min 2 min 0,0 UV-I 63 W/m 0,0 km/h (0 Bft)
23.05.2014 08:28 14,0 C 12,8 C 97 % 1008,6 hPa 0,0 l/m 0 min 2 min 0,0 UV-I 62 W/m 0,0 km/h (0 Bft)
23.05.2014 08:30 14,0 C 12,8 C 97 % 1008,7 hPa 0,0 l/m 0 min 2 min 0,0 UV-I 54 W/m 2,6 km/h (1 Bft)
23.05.2014 08:32 14,0 C 12,8 C 97 % 1008,7 hPa 0,0 l/m 0 min 2 min 0,0 UV-I 53 W/m 2,6 km/h (1 Bft)
23.05.2014 08:34 13,9 C 12,8 C 97 % 1008,8 hPa 0,0 l/m 0 min 2 min 0,0 UV-I 54 W/m 7,7 km/h (2 Bft)
23.05.2014 08:36 13,9 C 12,8 C 97 % 1008,8 hPa 0,0 l/m 0 min 2 min 0,0 UV-I 62 W/m 7,7 km/h (2 Bft)
23.05.2014 08:38 13,9 C 12,8 C 97 % 1008,8 hPa 0,0 l/m 0 min 2 min 0,0 UV-I 70 W/m 7,7 km/h (2 Bft)
23.05.2014 08:40 14,0 C 12,8 C 97 % 1008,8 hPa 0,0 l/m 0 min 2 min 0,0 UV-I 76 W/m 0,0 km/h (0 Bft)
23.05.2014 08:42 14,0 C 12,8 C 97 % 1008,8 hPa 0,0 l/m 0 min 2 min 0,0 UV-I 74 W/m 7,7 km/h (2 Bft)
23.05.2014 08:44 14,1 C 12,8 C 97 % 1008,9 hPa 0,0 l/m 0 min 2 min 0,0 UV-I 65 W/m 7,7 km/h (2 Bft)
23.05.2014 08:46 14,1 C 12,8 C 97 % 1008,9 hPa 0,0 l/m 0 min 2 min 0,0 UV-I 67 W/m 7,7 km/h (2 Bft)
23.05.2014 08:48 14,1 C 12,8 C 97 % 1008,8 hPa 0,0 l/m 0 min 2 min 0,0 UV-I 76 W/m 0,0 km/h (0 Bft)
23.05.2014 08:50 14,1 C 12,8 C 97 % 1008,8 hPa 0,2 l/m 0 min 2 min 0,0 UV-I 76 W/m 2,6 km/h (1 Bft)
23.05.2014 08:52 14,2 C 12,8 C 97 % 1008,8 hPa 0,0 l/m 0 min 0 min 0,0 UV-I 77 W/m 2,6 km/h (1 Bft)
23.05.2014 08:54 14,2 C 12,8 C 97 % 1008,8 hPa 0,0 l/m 0 min 0 min 0,0 UV-I 84 W/m 0,0 km/h (0 Bft)
23.05.2014 08:56 14,2 C 12,8 C 97 % 1008,8 hPa 0,0 l/m 0 min 0 min 0,0 UV-I 88 W/m 5,1 km/h (1 Bft)
23.05.2014 08:58 14,2 C 12,8 C 97 % 1008,8 hPa 0,0 l/m 0 min 0 min 0,0 UV-I 88 W/m 7,7 km/h (2 Bft)
23.05.2014 09:00 14,2 C 13,3 C 97 % 1008,8 hPa 0,0 l/m 0 min 0 min 0,0 UV-I 84 W/m 0,0 km/h (0 Bft)
23.05.2014 09:03 14,2 C 13,3 C 97 % 1008,9 hPa 0,0 l/m 0 min 0 min 0,0 UV-I 86 W/m 2,6 km/h (1 Bft)
23.05.2014 09:04 14,2 C 13,3 C 97 % 1008,9 hPa 0,0 l/m 0 min 0 min 0,0 UV-I 86 W/m 0,0 km/h (0 Bft)
23.05.2014 09:06 14,2 C 13,3 C 97 % 1008,8 hPa 0,0 l/m 0 min 0 min 0,0 UV-I 91 W/m 0,0 km/h (0 Bft)
23.05.2014 09:08 14,2 C 13,3 C 97 % 1008,8 hPa 0,0 l/m 0 min 0 min 0,0 UV-I 97 W/m 0,0 km/h (0 Bft)
23.05.2014 09:10 14,2 C 13,3 C 97 % 1008,8 hPa 0,0 l/m 0 min 0 min 0,0 UV-I 104 W/m 0,0 km/h (0 Bft)
23.05.2014 09:12 14,3 C 13,3 C 97 % 1008,8 hPa 0,0 l/m 0 min 0 min 0,0 UV-I 105 W/m 0,0 km/h (0 Bft)
23.05.2014 09:14 14,4 C 13,3 C 97 % 1008,8 hPa 0,0 l/m 0 min 0 min 0,0 UV-I 105 W/m 0,0 km/h (0 Bft)
23.05.2014 09:16 14,4 C 13,3 C 97 % 1008,8 hPa 0,0 l/m 0 min 0 min 0,0 UV-I 105 W/m 0,0 km/h (0 Bft)
23.05.2014 09:18 14,4 C 13,3 C 97 % 1008,8 hPa 0,0 l/m 0 min 0 min 0,0 UV-I 107 W/m 0,0 km/h (0 Bft)
23.05.2014 09:20 14,4 C 13,3 C 97 % 1008,8 hPa 0,0 l/m 0 min 2 min 0,0 UV-I 113 W/m 0,0 km/h (0 Bft)
23.05.2014 09:22 14,5 C 13,3 C 97 % 1008,8 hPa 0,0 l/m 0 min 0 min 0,0 UV-I 141 W/m 0,0 km/h (0 Bft)
23.05.2014 09:24 14,5 C 13,9 C 97 % 1008,8 hPa 0,0 l/m 0 min 0 min 0,0 UV-I 160 W/m 5,1 km/h (1 Bft)
23.05.2014 09:26 14,5 C 13,9 C 97 % 1008,8 hPa 0,0 l/m 0 min 0 min 0,0 UV-I 160 W/m 5,1 km/h (1 Bft)
23.05.2014 09:28 14,5 C 13,9 C 97 % 1008,7 hPa 0,0 l/m 0 min 0 min 0,0 UV-I 156 W/m 5,1 km/h (1 Bft)
23.05.2014 09:30 14,6 C 13,9 C 97 % 1008,8 hPa 0,0 l/m 0 min 0 min 0,0 UV-I 149 W/m 0,0 km/h (0 Bft)
23.05.2014 09:32 14,7 C 13,9 C 97 % 1008,7 hPa 0,0 l/m 0 min 0 min 0,0 UV-I 134 W/m 0,0 km/h (0 Bft)
23.05.2014 09:34 14,7 C 13,9 C 97 % 1008,8 hPa 0,0 l/m 0 min 0 min 0,0 UV-I 144 W/m 2,6 km/h (1 Bft)
23.05.2014 09:36 14,7 C 13,9 C 96 % 1008,8 hPa 0,0 l/m 0 min 0 min 0,0 UV-I 160 W/m 0,0 km/h (0 Bft)
23.05.2014 09:38 14,8 C 13,9 C 96 % 1008,9 hPa 0,0 l/m 0 min 0 min 0,0 UV-I 146 W/m 0,0 km/h (0 Bft)
23.05.2014 09:40 14,8 C 13,9 C 96 % 1009,0 hPa 0,0 l/m 0 min 0 min 0,0 UV-I 102 W/m 7,7 km/h (2 Bft)
23.05.2014 09:42 14,8 C 13,9 C 96 % 1009,1 hPa 0,0 l/m 0 min 0 min 0,0 UV-I 98 W/m 2,6 km/h (1 Bft)
23.05.2014 09:44 14,9 C 13,9 C 95 % 1009,0 hPa 0,0 l/m 0 min 0 min 0,0 UV-I 121 W/m 0,0 km/h (0 Bft)
23.05.2014 09:46 14,9 C 13,9 C 95 % 1008,9 hPa 0,0 l/m 0 min 2 min 0,0 UV-I 151 W/m 0,0 km/h (0 Bft)
23.05.2014 09:48 14,9 C 13,9 C 95 % 1008,9 hPa 0,0 l/m 0 min 0 min 0,0 UV-I 151 W/m 0,0 km/h (0 Bft)
23.05.2014 09:50 14,9 C 13,9 C 95 % 1008,9 hPa 0,0 l/m 0 min 0 min 0,0 UV-I 146 W/m 2,6 km/h (1 Bft)
23.05.2014 09:52 14,9 C 13,9 C 95 % 1009,0 hPa 0,0 l/m 0 min 2 min 0,0 UV-I 155 W/m 7,7 km/h (2 Bft)
23.05.2014 09:54 14,9 C 13,9 C 94 % 1009,0 hPa 0,0 l/m 0 min 2 min 0,0 UV-I 165 W/m 5,1 km/h (1 Bft)
23.05.2014 09:56 14,9 C 13,9 C 94 % 1009,0 hPa 0,0 l/m 0 min 2 min 0,0 UV-I 179 W/m 2,6 km/h (1 Bft)
23.05.2014 09:58 15,0 C 13,9 C 94 % 1009,0 hPa 0,0 l/m 0 min 0 min 0,0 UV-I 200 W/m 0,0 km/h (0 Bft)
23.05.2014 10:00 15,0 C 13,9 C 94 % 1009,0 hPa 0,0 l/m 0 min 0 min 0,0 UV-I 192 W/m 0,0 km/h (0 Bft)
23.05.2014 10:02 15,1 C 13,9 C 94 % 1009,1 hPa 0,0 l/m 0 min 2 min 0,0 UV-I 167 W/m 0,0 km/h (0 Bft)
23.05.2014 10:06 15,2 C 13,9 C 93 % 1009,3 hPa 0,0 l/m 0 min 2 min 0,0 UV-I 120 W/m 7,7 km/h (2 Bft)
23.05.2014 10:08 15,2 C 13,9 C 93 % 1009,4 hPa 0,0 l/m 0 min 2 min 0,0 UV-I 118 W/m 0,0 km/h (0 Bft)
23.05.2014 10:10 15,1 C 13,9 C 93 % 1009,4 hPa 0,0 l/m 0 min 2 min 0,0 UV-I 118 W/m 7,7 km/h (2 Bft)
23.05.2014 10:12 15,1 C 13,9 C 93 % 1009,5 hPa 0,0 l/m 0 min 0 min 0,0 UV-I 107 W/m 2,6 km/h (1 Bft)
23.05.2014 10:14 15,1 C 13,9 C 93 % 1009,6 hPa 0,0 l/m 0 min 2 min 0,0 UV-I 113 W/m 2,6 km/h (1 Bft)
23.05.2014 10:16 15,1 C 13,9 C 93 % 1009,6 hPa 0,0 l/m 0 min 2 min 0,0 UV-I 144 W/m 2,6 km/h (1 Bft)
23.05.2014 10:18 15,1 C 13,9 C 93 % 1009,6 hPa 0,0 l/m 0 min 2 min 0,0 UV-I 160 W/m 0,0 km/h (0 Bft)
23.05.2014 10:20 15,1 C 13,9 C 93 % 1009,6 hPa 0,0 l/m 0 min 2 min 0,0 UV-I 190 W/m 7,7 km/h (2 Bft)
23.05.2014 10:22 15,1 C 13,9 C 93 % 1009,6 hPa 0,0 l/m 0 min 2 min 0,0 UV-I 236 W/m 2,6 km/h (1 Bft)
23.05.2014 10:24 15,1 C 13,9 C 93 % 1009,5 hPa 0,0 l/m 0 min 2 min 0,0 UV-I 220 W/m 7,7 km/h (2 Bft)
23.05.2014 10:26 15,2 C 13,9 C 93 % 1009,6 hPa 0,0 l/m 0 min 0 min 0,0 UV-I 199 W/m 0,0 km/h (0 Bft)
23.05.2014 10:28 15,3 C 14,4 C 93 % 1009,7 hPa 0,0 l/m 0 min 0 min 0,0 UV-I 197 W/m 7,7 km/h (2 Bft)
23.05.2014 10:30 15,3 C 14,4 C 93 % 1009,7 hPa 0,0 l/m 0 min 2 min 0,0 UV-I 197 W/m 5,1 km/h (1 Bft)
23.05.2014 10:32 15,3 C 14,4 C 93 % 1009,7 hPa 0,0 l/m 0 min 2 min 0,0 UV-I 199 W/m 0,0 km/h (0 Bft)
23.05.2014 10:34 15,3 C 14,4 C 92 % 1009,7 hPa 0,0 l/m 0 min 2 min 0,0 UV-I 213 W/m 5,1 km/h (1 Bft)
23.05.2014 10:36 15,3 C 13,9 C 92 % 1009,7 hPa 0,0 l/m 0 min 2 min 0,0 UV-I 213 W/m 7,7 km/h (2 Bft)
23.05.2014 10:38 15,2 C 13,9 C 92 % 1009,7 hPa 0,0 l/m 0 min 2 min 0,0 UV-I 218 W/m 0,0 km/h (0 Bft)
23.05.2014 10:40 15,3 C 13,9 C 92 % 1009,6 hPa 0,0 l/m 0 min 2 min 0,0 UV-I 243 W/m 5,1 km/h (1 Bft)
23.05.2014 10:42 15,3 C 14,4 C 92 % 1009,6 hPa 0,0 l/m 0 min 0 min 0,5 UV-I 258 W/m 7,7 km/h (2 Bft)
23.05.2014 10:44 15,4 C 14,4 C 92 % 1009,4 hPa 0,0 l/m 0 min 0 min 0,5 UV-I 269 W/m 2,6 km/h (1 Bft)
23.05.2014 10:46 15,3 C 14,4 C 92 % 1009,4 hPa 0,0 l/m 0 min 0 min 0,5 UV-I 265 W/m 2,6 km/h (1 Bft)
23.05.2014 10:48 15,3 C 14,4 C 91 % 1009,4 hPa 0,0 l/m 0 min 0 min 0,5 UV-I 246 W/m 2,6 km/h (1 Bft)
23.05.2014 10:50 15,4 C 14,4 C 91 % 1009,4 hPa 0,0 l/m 0 min 0 min 0,0 UV-I 225 W/m 0,0 km/h (0 Bft)
23.05.2014 10:52 15,4 C 13,9 C 91 % 1009,5 hPa 0,0 l/m 0 min 0 min 0,0 UV-I 239 W/m 2,6 km/h (1 Bft)
23.05.2014 10:54 15,4 C 14,4 C 91 % 1009,5 hPa 0,0 l/m 0 min 0 min 0,6 UV-I 264 W/m 0,0 km/h (0 Bft)
23.05.2014 10:56 15,6 C 14,4 C 92 % 1009,5 hPa 0,0 l/m 0 min 0 min 0,7 UV-I 287 W/m 0,0 km/h (0 Bft)
23.05.2014 10:58 15,7 C 15,0 C 91 % 1009,6 hPa 0,0 l/m 0 min 0 min 0,6 UV-I 269 W/m 7,7 km/h (2 Bft)
23.05.2014 11:00 15,6 C 14,4 C 90 % 1009,6 hPa 0,0 l/m 0 min 0 min 0,0 UV-I 230 W/m 12,9 km/h (3 Bft)
23.05.2014 11:02 15,6 C 14,4 C 90 % 1009,5 hPa 0,0 l/m 0 min 0 min 0,0 UV-I 174 W/m 0,0 km/h (0 Bft)
23.05.2014 11:06 15,6 C 14,4 C 89 % 1009,6 hPa 0,0 l/m 0 min 0 min 0,0 UV-I 169 W/m 10,3 km/h (2 Bft)
23.05.2014 11:08 15,5 C 13,9 C 89 % 1009,5 hPa 0,0 l/m 0 min 0 min 0,0 UV-I 199 W/m 7,7 km/h (2 Bft)
23.05.2014 11:10 15,5 C 14,4 C 89 % 1009,5 hPa 0,0 l/m 0 min 0 min 0,5 UV-I 223 W/m 0,0 km/h (0 Bft)
23.05.2014 11:12 15,5 C 14,4 C 90 % 1009,5 hPa 0,0 l/m 0 min 0 min 0,5 UV-I 236 W/m 0,0 km/h (0 Bft)
23.05.2014 11:14 15,6 C 14,4 C 90 % 1009,5 hPa 0,0 l/m 0 min 0 min 0,5 UV-I 225 W/m 2,6 km/h (1 Bft)
23.05.2014 11:16 15,6 C 14,4 C 90 % 1009,6 hPa 0,0 l/m 0 min 0 min 0,0 UV-I 206 W/m 0,0 km/h (0 Bft)
23.05.2014 11:18 15,6 C 14,4 C 89 % 1009,7 hPa 0,0 l/m 0 min 0 min 0,0 UV-I 186 W/m 12,9 km/h (3 Bft)
23.05.2014 11:20 15,6 C 14,4 C 89 % 1009,8 hPa 0,0 l/m 0 min 0 min 0,0 UV-I 151 W/m 7,7 km/h (2 Bft)
23.05.2014 11:22 15,6 C 14,4 C 89 % 1009,7 hPa 0,0 l/m 0 min 0 min 0,0 UV-I 151 W/m 5,1 km/h (1 Bft)
23.05.2014 11:24 15,6 C 14,4 C 89 % 1009,8 hPa 0,0 l/m 0 min 0 min 0,0 UV-I 179 W/m 10,3 km/h (2 Bft)
23.05.2014 11:26 15,5 C 14,4 C 89 % 1009,8 hPa 0,0 l/m 0 min 0 min 0,0 UV-I 188 W/m 2,6 km/h (1 Bft)
23.05.2014 11:28 15,6 C 14,4 C 89 % 1009,8 hPa 0,0 l/m 0 min 0 min 0,0 UV-I 176 W/m 0,0 km/h (0 Bft)
23.05.2014 11:30 15,6 C 14,4 C 89 % 1009,9 hPa 0,0 l/m 0 min 0 min 0,0 UV-I 162 W/m 5,1 km/h (1 Bft)
23.05.2014 11:32 15,6 C 14,4 C 89 % 1009,9 hPa 0,0 l/m 0 min 0 min 0,0 UV-I 174 W/m 0,0 km/h (0 Bft)
23.05.2014 11:34 15,6 C 14,4 C 90 % 1009,9 hPa 0,0 l/m 0 min 0 min 0,0 UV-I 185 W/m 2,6 km/h (1 Bft)
23.05.2014 11:36 15,6 C 14,4 C 89 % 1009,9 hPa 0,0 l/m 0 min 0 min 0,0 UV-I 199 W/m 10,3 km/h (2 Bft)
23.05.2014 11:38 15,6 C 14,4 C 89 % 1009,9 hPa 0,0 l/m 0 min 0 min 0,0 UV-I 204 W/m 2,6 km/h (1 Bft)
23.05.2014 11:40 15,6 C 14,4 C 88 % 1009,9 hPa 0,0 l/m 0 min 0 min 0,5 UV-I 209 W/m 7,7 km/h (2 Bft)
23.05.2014 11:42 15,6 C 14,4 C 88 % 1009,8 hPa 0,0 l/m 0 min 0 min 0,0 UV-I 193 W/m 2,6 km/h (1 Bft)
23.05.2014 11:44 15,7 C 14,4 C 88 % 1009,9 hPa 0,0 l/m 0 min 0 min 0,0 UV-I 186 W/m 2,6 km/h (1 Bft)
23.05.2014 11:46 15,7 C 14,4 C 88 % 1009,8 hPa 0,0 l/m 0 min 0 min 0,0 UV-I 204 W/m 7,7 km/h (2 Bft)
23.05.2014 11:48 15,7 C 15,0 C 88 % 1009,9 hPa 0,0 l/m 0 min 0 min 0,6 UV-I 239 W/m 0,0 km/h (0 Bft)
23.05.2014 11:50 15,8 C 15,0 C 88 % 1010,0 hPa 0,0 l/m 0 min 0 min 0,6 UV-I 227 W/m 2,6 km/h (1 Bft)
23.05.2014 11:52 15,8 C 15,0 C 87 % 1009,9 hPa 0,0 l/m 0 min 0 min 0,6 UV-I 220 W/m 5,1 km/h (1 Bft)
23.05.2014 11:54 15,9 C 15,0 C 87 % 1009,8 hPa 0,0 l/m 0 min 0 min 0,8 UV-I 269 W/m 0,0 km/h (0 Bft)
23.05.2014 11:56 16,0 C 15,0 C 88 % 1009,6 hPa 0,0 l/m 0 min 0 min 1,0 UV-I 302 W/m 0,0 km/h (0 Bft)
23.05.2014 11:58 16,1 C 15,6 C 87 % 1009,6 hPa 0,0 l/m 0 min 0 min 1,0 UV-I 304 W/m 0,0 km/h (0 Bft)
23.05.2014 12:00 16,2 C 15,6 C 87 % 1009,6 hPa 0,0 l/m 0 min 0 min 0,9 UV-I 269 W/m 0,0 km/h (0 Bft)
23.05.2014 12:02 16,2 C 15,6 C 86 % 1009,7 hPa 0,0 l/m 0 min 0 min 0,7 UV-I 237 W/m 0,0 km/h (0 Bft)
23.05.2014 12:06 16,3 C 15,6 C 86 % 1009,9 hPa 0,0 l/m 0 min 0 min 0,5 UV-I 206 W/m 0,0 km/h (0 Bft)
23.05.2014 12:08 16,3 C 15,6 C 86 % 1010,0 hPa 0,0 l/m 0 min 0 min 0,5 UV-I 204 W/m 0,0 km/h (0 Bft)
23.05.2014 12:10 16,3 C 15,6 C 86 % 1009,9 hPa 0,0 l/m 0 min 0 min 0,6 UV-I 220 W/m 0,0 km/h (0 Bft)
23.05.2014 12:12 16,3 C 15,6 C 87 % 1010,0 hPa 0,0 l/m 0 min 0 min 0,6 UV-I 216 W/m 0,0 km/h (0 Bft)
23.05.2014 12:14 16,3 C 15,6 C 87 % 1010,0 hPa 0,0 l/m 0 min 0 min 0,0 UV-I 195 W/m 0,0 km/h (0 Bft)
23.05.2014 12:16 16,4 C 15,6 C 86 % 1010,0 hPa 0,0 l/m 0 min 0 min 0,0 UV-I 176 W/m 2,6 km/h (1 Bft)
23.05.2014 12:18 16,4 C 15,6 C 87 % 1010,0 hPa 0,0 l/m 0 min 0 min 0,0 UV-I 171 W/m 2,6 km/h (1 Bft)
23.05.2014 12:20 16,4 C 15,6 C 87 % 1010,0 hPa 0,0 l/m 0 min 0 min 0,0 UV-I 165 W/m 0,0 km/h (0 Bft)
23.05.2014 12:22 16,4 C 15,6 C 87 % 1010,0 hPa 0,0 l/m 0 min 0 min 0,0 UV-I 162 W/m 0,0 km/h (0 Bft)
23.05.2014 12:24 16,4 C 15,6 C 87 % 1010,0 hPa 0,0 l/m 0 min 0 min 0,0 UV-I 174 W/m 0,0 km/h (0 Bft)
23.05.2014 12:26 16,3 C 15,6 C 86 % 1010,0 hPa 0,0 l/m 0 min 0 min 0,0 UV-I 171 W/m 0,0 km/h (0 Bft)
23.05.2014 12:28 16,3 C 15,6 C 85 % 1010,0 hPa 0,0 l/m 0 min 0 min 0,0 UV-I 160 W/m 0,0 km/h (0 Bft)
23.05.2014 12:30 16,3 C 15,6 C 85 % 1010,0 hPa 0,0 l/m 0 min 0 min 0,0 UV-I 148 W/m 5,1 km/h (1 Bft)
23.05.2014 12:32 16,4 C 15,6 C 85 % 1010,0 hPa 0,0 l/m 0 min 0 min 0,0 UV-I 134 W/m 0,0 km/h (0 Bft)
23.05.2014 12:34 16,5 C 15,6 C 86 % 1010,0 hPa 0,0 l/m 0 min 0 min 0,0 UV-I 116 W/m 0,0 km/h (0 Bft)
23.05.2014 12:36 16,4 C 15,6 C 85 % 1010,1 hPa 0,0 l/m 0 min 0 min 0,0 UV-I 105 W/m 0,0 km/h (0 Bft)
23.05.2014 12:38 16,4 C 15,0 C 84 % 1010,1 hPa 0,0 l/m 0 min 0 min 0,0 UV-I 111 W/m 0,0 km/h (0 Bft)
23.05.2014 12:40 16,4 C 15,0 C 85 % 1010,1 hPa 0,0 l/m 0 min 0 min 0,0 UV-I 114 W/m 0,0 km/h (0 Bft)
23.05.2014 12:42 16,4 C 15,0 C 85 % 1010,0 hPa 0,0 l/m 0 min 0 min 0,0 UV-I 125 W/m 0,0 km/h (0 Bft)
23.05.2014 12:44 16,4 C 15,0 C 85 % 1010,0 hPa 0,0 l/m 0 min 0 min 0,0 UV-I 141 W/m 0,0 km/h (0 Bft)
23.05.2014 12:46 16,3 C 15,6 C 84 % 1010,1 hPa 0,0 l/m 0 min 0 min 0,0 UV-I 171 W/m 2,6 km/h (1 Bft)
23.05.2014 12:48 16,4 C 15,6 C 84 % 1010,1 hPa 0,0 l/m 0 min 0 min 0,5 UV-I 225 W/m 0,0 km/h (0 Bft)
23.05.2014 12:50 16,5 C 15,6 C 85 % 1010,2 hPa 0,0 l/m 0 min 0 min 0,7 UV-I 243 W/m 0,0 km/h (0 Bft)
23.05.2014 12:52 16,6 C 16,1 C 86 % 1010,2 hPa 0,0 l/m 0 min 0 min 0,7 UV-I 246 W/m 0,0 km/h (0 Bft)
23.05.2014 12:54 16,6 C 16,1 C 84 % 1010,2 hPa 0,0 l/m 0 min 0 min 0,6 UV-I 234 W/m 7,7 km/h (2 Bft)
23.05.2014 12:56 16,7 C 16,1 C 85 % 1010,2 hPa 0,0 l/m 0 min 0 min 0,6 UV-I 236 W/m 0,0 km/h (0 Bft)
23.05.2014 12:58 16,7 C 16,1 C 84 % 1010,2 hPa 0,0 l/m 0 min 0 min 0,7 UV-I 248 W/m 7,7 km/h (2 Bft)
23.05.2014 13:00 16,8 C 16,1 C 83 % 1010,2 hPa 0,0 l/m 0 min 0 min 0,6 UV-I 234 W/m 0,0 km/h (0 Bft)
23.05.2014 13:02 16,8 C 16,1 C 84 % 1010,2 hPa 0,0 l/m 0 min 0 min 0,6 UV-I 237 W/m 10,3 km/h (2 Bft)
23.05.2014 13:06 16,9 C 16,7 C 82 % 1010,2 hPa 0,0 l/m 0 min 0 min 0,7 UV-I 258 W/m 10,3 km/h (2 Bft)
23.05.2014 13:08 16,9 C 16,7 C 82 % 1010,3 hPa 0,0 l/m 0 min 0 min 0,8 UV-I 265 W/m 0,0 km/h (0 Bft)
23.05.2014 13:10 17,0 C 16,7 C 84 % 1010,2 hPa 0,0 l/m 0 min 0 min 0,8 UV-I 271 W/m 0,0 km/h (0 Bft)
23.05.2014 13:12 17,1 C 16,7 C 84 % 1010,2 hPa 0,0 l/m 0 min 0 min 0,8 UV-I 265 W/m 2,6 km/h (1 Bft)
23.05.2014 13:14 17,1 C 16,7 C 81 % 1010,2 hPa 0,0 l/m 0 min 0 min 0,8 UV-I 269 W/m 5,1 km/h (1 Bft)
23.05.2014 13:16 17,0 C 16,7 C 81 % 1010,3 hPa 0,0 l/m 0 min 0 min 0,8 UV-I 272 W/m 7,7 km/h (2 Bft)
23.05.2014 13:18 17,0 C 16,7 C 81 % 1010,2 hPa 0,0 l/m 0 min 0 min 0,9 UV-I 276 W/m 0,0 km/h (0 Bft)
23.05.2014 13:20 17,1 C 16,7 C 81 % 1010,2 hPa 0,0 l/m 0 min 0 min 0,9 UV-I 281 W/m 7,7 km/h (2 Bft)
23.05.2014 13:22 17,2 C 16,7 C 81 % 1010,2 hPa 0,0 l/m 0 min 0 min 0,9 UV-I 285 W/m 0,0 km/h (0 Bft)
23.05.2014 13:24 17,2 C 16,7 C 80 % 1010,2 hPa 0,0 l/m 0 min 0 min 1,0 UV-I 301 W/m 0,0 km/h (0 Bft)
23.05.2014 13:26 17,2 C 16,7 C 79 % 1010,2 hPa 0,0 l/m 0 min 0 min 1,1 UV-I 323 W/m 0,0 km/h (0 Bft)
23.05.2014 13:28 17,3 C 17,2 C 79 % 1010,3 hPa 0,0 l/m 0 min 0 min 1,2 UV-I 341 W/m 7,7 km/h (2 Bft)
23.05.2014 13:30 17,3 C 17,2 C 79 % 1010,2 hPa 0,0 l/m 0 min 0 min 1,2 UV-I 336 W/m 7,7 km/h (2 Bft)
23.05.2014 13:32 17,3 C 17,2 C 79 % 1010,3 hPa 0,0 l/m 0 min 0 min 1,1 UV-I 323 W/m 10,3 km/h (2 Bft)
23.05.2014 13:34 17,4 C 17,2 C 78 % 1010,3 hPa 0,0 l/m 0 min 0 min 1,0 UV-I 297 W/m 2,6 km/h (1 Bft)
23.05.2014 13:36 17,4 C 17,2 C 79 % 1010,3 hPa 0,0 l/m 0 min 0 min 0,9 UV-I 264 W/m 2,6 km/h (1 Bft)
23.05.2014 13:38 17,4 C 17,2 C 78 % 1010,3 hPa 0,0 l/m 0 min 0 min 0,7 UV-I 246 W/m 7,7 km/h (2 Bft)
23.05.2014 13:40 17,4 C 17,2 C 77 % 1010,2 hPa 0,0 l/m 0 min 0 min 0,7 UV-I 232 W/m 0,0 km/h (0 Bft)
23.05.2014 13:42 17,4 C 16,7 C 77 % 1010,3 hPa 0,0 l/m 0 min 0 min 0,5 UV-I 216 W/m 10,3 km/h (2 Bft)
23.05.2014 13:44 17,4 C 16,7 C 77 % 1010,4 hPa 0,0 l/m 0 min 0 min 0,0 UV-I 207 W/m 0,0 km/h (0 Bft)
23.05.2014 13:46 17,3 C 16,7 C 77 % 1010,4 hPa 0,0 l/m 0 min 0 min 0,0 UV-I 185 W/m 7,7 km/h (2 Bft)
23.05.2014 13:48 17,2 C 16,7 C 78 % 1010,3 hPa 0,0 l/m 0 min 0 min 0,0 UV-I 183 W/m 10,3 km/h (2 Bft)
23.05.2014 13:50 17,2 C 16,7 C 78 % 1010,4 hPa 0,0 l/m 0 min 2 min 0,0 UV-I 200 W/m 7,7 km/h (2 Bft)
23.05.2014 13:52 17,2 C 16,1 C 79 % 1010,3 hPa 0,0 l/m 0 min 2 min 0,6 UV-I 229 W/m 7,7 km/h (2 Bft)
23.05.2014 13:54 17,2 C 16,1 C 80 % 1010,3 hPa 0,0 l/m 0 min 2 min 0,5 UV-I 221 W/m 5,1 km/h (1 Bft)
23.05.2014 13:56 17,3 C 15,6 C 81 % 1010,3 hPa 0,0 l/m 0 min 2 min 0,0 UV-I 204 W/m 0,0 km/h (0 Bft)
23.05.2014 13:58 17,2 C 15,6 C 82 % 1010,3 hPa 0,0 l/m 0 min 2 min 0,0 UV-I 200 W/m 2,6 km/h (1 Bft)
23.05.2014 14:00 17,2 C 15,0 C 82 % 1010,4 hPa 0,0 l/m 0 min 2 min 0,0 UV-I 193 W/m 7,7 km/h (2 Bft)
23.05.2014 14:02 17,1 C 15,0 C 82 % 1010,4 hPa 0,0 l/m 0 min 2 min 0,0 UV-I 174 W/m 5,1 km/h (1 Bft)
23.05.2014 14:06 17,0 C 15,0 C 83 % 1010,4 hPa 0,0 l/m 0 min 2 min 0,0 UV-I 109 W/m 2,6 km/h (1 Bft)
23.05.2014 14:08 16,8 C 14,4 C 83 % 1010,4 hPa 0,0 l/m 0 min 2 min 0,0 UV-I 88 W/m 10,3 km/h (2 Bft)
23.05.2014 14:10 16,7 C 13,9 C 83 % 1010,4 hPa 0,0 l/m 0 min 2 min 0,0 UV-I 63 W/m 0,0 km/h (0 Bft)
23.05.2014 14:12 16,5 C 13,9 C 83 % 1010,5 hPa 0,0 l/m 0 min 2 min 0,0 UV-I 56 W/m 0,0 km/h (0 Bft)
23.05.2014 14:14 16,3 C 13,9 C 84 % 1010,5 hPa 0,0 l/m 0 min 2 min 0,0 UV-I 46 W/m 10,3 km/h (2 Bft)
23.05.2014 14:16 16,1 C 13,9 C 85 % 1010,6 hPa 0,0 l/m 0 min 2 min 0,0 UV-I 40 W/m 0,0 km/h (0 Bft)
23.05.2014 14:18 15,9 C 13,3 C 86 % 1010,6 hPa 0,0 l/m 0 min 2 min 0,0 UV-I 39 W/m 2,6 km/h (1 Bft)
23.05.2014 14:20 15,8 C 13,3 C 87 % 1010,6 hPa 0,0 l/m 0 min 2 min 0,0 UV-I 35 W/m 0,0 km/h (0 Bft)
23.05.2014 14:22 15,7 C 13,3 C 88 % 1010,6 hPa 0,0 l/m 0 min 2 min 0,0 UV-I 37 W/m 0,0 km/h (0 Bft)
23.05.2014 14:24 15,6 C 13,3 C 88 % 1010,5 hPa 0,2 l/m 0 min 2 min 0,0 UV-I 42 W/m 0,0 km/h (0 Bft)
23.05.2014 14:26 15,4 C 13,3 C 89 % 1010,6 hPa 0,0 l/m 0 min 2 min 0,0 UV-I 49 W/m 0,0 km/h (0 Bft)
23.05.2014 14:28 15,3 C 13,3 C 90 % 1010,6 hPa 0,0 l/m 0 min 2 min 0,0 UV-I 69 W/m 5,1 km/h (1 Bft)
23.05.2014 14:30 15,3 C 13,3 C 91 % 1010,6 hPa 0,2 l/m 0 min 2 min 0,0 UV-I 81 W/m 0,0 km/h (0 Bft)
23.05.2014 14:32 15,1 C 13,3 C 91 % 1010,7 hPa 0,0 l/m 0 min 2 min 0,0 UV-I 100 W/m 5,1 km/h (1 Bft)
23.05.2014 14:34 15,0 C 13,3 C 91 % 1010,7 hPa 0,2 l/m 0 min 2 min 0,0 UV-I 113 W/m 15,4 km/h (3 Bft)
23.05.2014 14:36 14,9 C 13,3 C 92 % 1010,7 hPa 0,0 l/m 0 min 2 min 0,0 UV-I 134 W/m 15,4 km/h (3 Bft)
23.05.2014 14:38 14,8 C 13,3 C 92 % 1010,6 hPa 0,0 l/m 0 min 2 min 0,0 UV-I 185 W/m 10,3 km/h (2 Bft)
23.05.2014 14:40 14,8 C 13,3 C 92 % 1010,6 hPa 0,0 l/m 0 min 2 min 0,0 UV-I 216 W/m 0,0 km/h (0 Bft)
23.05.2014 14:42 14,9 C 13,9 C 93 % 1010,6 hPa 0,0 l/m 0 min 2 min 0,6 UV-I 262 W/m 0,0 km/h (0 Bft)
23.05.2014 14:44 15,0 C 14,4 C 93 % 1010,6 hPa 0,0 l/m 0 min 2 min 0,9 UV-I 320 W/m 0,0 km/h (0 Bft)
23.05.2014 14:46 15,1 C 14,4 C 94 % 1010,6 hPa 0,0 l/m 0 min 0 min 1,1 UV-I 332 W/m 2,6 km/h (1 Bft)
23.05.2014 14:48 15,3 C 14,4 C 94 % 1010,6 hPa 0,0 l/m 0 min 0 min 1,0 UV-I 325 W/m 2,6 km/h (1 Bft)
23.05.2014 14:50 15,4 C 15,0 C 94 % 1010,6 hPa 0,0 l/m 0 min 0 min 1,0 UV-I 294 W/m 2,6 km/h (1 Bft)
23.05.2014 14:52 15,5 C 15,0 C 94 % 1010,6 hPa 0,0 l/m 0 min 0 min 0,8 UV-I 279 W/m 0,0 km/h (0 Bft)
23.05.2014 14:54 15,5 C 15,0 C 94 % 1010,6 hPa 0,0 l/m 0 min 0 min 0,9 UV-I 288 W/m 0,0 km/h (0 Bft)
23.05.2014 14:56 15,4 C 15,0 C 94 % 1010,7 hPa 0,0 l/m 0 min 0 min 1,0 UV-I 350 W/m 5,1 km/h (1 Bft)
23.05.2014 14:58 15,3 C 15,0 C 93 % 1010,7 hPa 0,0 l/m 0 min 2 min 1,0 UV-I 327 W/m 7,7 km/h (2 Bft)
23.05.2014 15:00 15,4 C 15,0 C 93 % 1010,7 hPa 0,0 l/m 0 min 2 min 1,0 UV-I 313 W/m 0,0 km/h (0 Bft)
23.05.2014 15:02 15,6 C 15,0 C 93 % 1010,7 hPa 0,0 l/m 0 min 2 min 0,9 UV-I 302 W/m 2,6 km/h (1 Bft)
23.05.2014 15:06 15,6 C 15,0 C 92 % 1010,6 hPa 0,0 l/m 0 min 2 min 1,0 UV-I 318 W/m 2,6 km/h (1 Bft)
23.05.2014 15:08 15,7 C 15,0 C 92 % 1010,6 hPa 0,0 l/m 0 min 2 min 1,1 UV-I 339 W/m 0,0 km/h (0 Bft)
23.05.2014 15:10 15,8 C 15,0 C 92 % 1010,5 hPa 0,0 l/m 0 min 0 min 1,2 UV-I 355 W/m 5,1 km/h (1 Bft)
23.05.2014 15:12 15,8 C 15,0 C 91 % 1010,6 hPa 0,0 l/m 0 min 0 min 1,2 UV-I 352 W/m 0,0 km/h (0 Bft)
23.05.2014 15:14 15,8 C 15,0 C 90 % 1010,6 hPa 0,0 l/m 0 min 0 min 1,1 UV-I 316 W/m 7,7 km/h (2 Bft)
23.05.2014 15:16 15,8 C 15,0 C 90 % 1010,5 hPa 0,0 l/m 0 min 0 min 1,0 UV-I 302 W/m 0,0 km/h (0 Bft)
23.05.2014 15:18 15,9 C 15,0 C 89 % 1010,6 hPa 0,0 l/m 0 min 0 min 1,0 UV-I 304 W/m 0,0 km/h (0 Bft)
23.05.2014 15:20 16,1 C 15,0 C 90 % 1010,6 hPa 0,0 l/m 0 min 0 min 1,1 UV-I 336 W/m 0,0 km/h (0 Bft)
23.05.2014 15:22 16,2 C 15,0 C 89 % 1010,6 hPa 0,0 l/m 0 min 2 min 1,3 UV-I 381 W/m 0,0 km/h (0 Bft)
23.05.2014 15:24 16,4 C 15,6 C 89 % 1010,6 hPa 0,0 l/m 0 min 2 min 3,1 UV-I 381 W/m 2,6 km/h (1 Bft)
23.05.2014 15:26 16,6 C 15,6 C 89 % 1010,7 hPa 0,0 l/m 0 min 2 min 1,9 UV-I 381 W/m 2,6 km/h (1 Bft)
23.05.2014 15:28 16,7 C 15,6 C 85 % 1010,6 hPa 0,0 l/m 0 min 2 min 2,9 UV-I 381 W/m 5,1 km/h (1 Bft)
23.05.2014 15:30 16,9 C 15,6 C 82 % 1010,7 hPa 0,0 l/m 2 min 0 min 2,6 UV-I 596 W/m 7,7 km/h (2 Bft)
23.05.2014 15:32 17,2 C 15,6 C 81 % 1010,7 hPa 0,0 l/m 2 min 0 min 3,1 UV-I 786 W/m 5,1 km/h (1 Bft)
23.05.2014 15:34 17,4 C 15,6 C 79 % 1010,7 hPa 0,0 l/m 2 min 0 min 3,1 UV-I 786 W/m 5,1 km/h (1 Bft)
23.05.2014 15:36 17,6 C 15,6 C 78 % 1010,7 hPa 0,0 l/m 2 min 0 min 3,1 UV-I 740 W/m 2,6 km/h (1 Bft)
23.05.2014 15:38 17,6 C 16,1 C 78 % 1010,7 hPa 0,0 l/m 2 min 0 min 3,0 UV-I 726 W/m 5,1 km/h (1 Bft)
23.05.2014 15:40 17,6 C 16,7 C 75 % 1010,6 hPa 0,0 l/m 2 min 0 min 3,0 UV-I 735 W/m 0,0 km/h (0 Bft)
23.05.2014 15:42 17,6 C 16,7 C 76 % 1010,7 hPa 0,0 l/m 2 min 0 min 2,2 UV-I 745 W/m 2,6 km/h (1 Bft)
23.05.2014 15:44 17,8 C 17,8 C 78 % 1010,6 hPa 0,0 l/m 2 min 0 min 3,0 UV-I 749 W/m 0,0 km/h (0 Bft)
23.05.2014 15:46 17,9 C 18,9 C 78 % 1010,6 hPa 0,0 l/m 2 min 0 min 2,9 UV-I 729 W/m 5,1 km/h (1 Bft)
23.05.2014 15:48 17,9 C 18,9 C 78 % 1010,6 hPa 0,0 l/m 2 min 0 min 2,9 UV-I 726 W/m 5,1 km/h (1 Bft)
23.05.2014 15:50 17,9 C 18,9 C 77 % 1010,7 hPa 0,0 l/m 2 min 0 min 2,8 UV-I 719 W/m 0,0 km/h (0 Bft)
23.05.2014 15:52 18,1 C 20,0 C 77 % 1010,6 hPa 0,0 l/m 2 min 0 min 2,8 UV-I 719 W/m 2,6 km/h (1 Bft)
23.05.2014 15:54 18,1 C 19,4 C 75 % 1010,7 hPa 0,0 l/m 2 min 0 min 2,8 UV-I 714 W/m 0,0 km/h (0 Bft)
23.05.2014 15:56 18,2 C 20,0 C 79 % 1010,6 hPa 0,0 l/m 2 min 0 min 2,8 UV-I 710 W/m 0,0 km/h (0 Bft)
23.05.2014 15:58 18,1 C 20,0 C 76 % 1010,6 hPa 0,0 l/m 2 min 0 min 2,8 UV-I 708 W/m 0,0 km/h (0 Bft)
23.05.2014 16:00 18,4 C 20,6 C 78 % 1010,7 hPa 0,0 l/m 2 min 0 min 2,7 UV-I 707 W/m 7,7 km/h (2 Bft)
23.05.2014 16:02 18,6 C 20,6 C 78 % 1010,7 hPa 0,0 l/m 2 min 0 min 2,7 UV-I 703 W/m 2,6 km/h (1 Bft)
23.05.2014 16:06 18,8 C 19,4 C 75 % 1010,7 hPa 0,0 l/m 2 min 0 min 2,7 UV-I 726 W/m 2,6 km/h (1 Bft)
23.05.2014 16:08 18,8 C 18,3 C 73 % 1010,7 hPa 0,0 l/m 2 min 0 min 2,6 UV-I 628 W/m 5,1 km/h (1 Bft)
23.05.2014 16:10 18,7 C 17,8 C 72 % 1010,7 hPa 0,0 l/m 2 min 0 min 2,6 UV-I 707 W/m 10,3 km/h (2 Bft)
23.05.2014 16:12 18,7 C 17,8 C 73 % 1010,7 hPa 0,0 l/m 2 min 0 min 2,6 UV-I 668 W/m 10,3 km/h (2 Bft)
23.05.2014 16:14 18,6 C 17,2 C 73 % 1010,7 hPa 0,0 l/m 2 min 0 min 2,6 UV-I 714 W/m 0,0 km/h (0 Bft)
23.05.2014 16:16 18,6 C 16,7 C 73 % 1010,7 hPa 0,0 l/m 2 min 0 min 2,5 UV-I 686 W/m 2,6 km/h (1 Bft)
23.05.2014 16:18 18,8 C 17,2 C 73 % 1010,7 hPa 0,0 l/m 2 min 0 min 2,5 UV-I 686 W/m 0,0 km/h (0 Bft)
23.05.2014 16:20 19,1 C 17,2 C 73 % 1010,7 hPa 0,0 l/m 2 min 0 min 2,5 UV-I 693 W/m 10,3 km/h (2 Bft)
23.05.2014 16:22 19,5 C 17,2 C 74 % 1010,7 hPa 0,0 l/m 2 min 0 min 2,1 UV-I 700 W/m 2,6 km/h (1 Bft)
23.05.2014 16:24 19,3 C 16,1 C 69 % 1010,6 hPa 0,0 l/m 0 min 0 min 1,8 UV-I 343 W/m 0,0 km/h (0 Bft)
23.05.2014 16:26 19,2 C 16,7 C 71 % 1010,6 hPa 0,0 l/m 2 min 0 min 2,6 UV-I 427 W/m 7,7 km/h (2 Bft)
23.05.2014 16:28 19,1 C 16,7 C 68 % 1010,6 hPa 0,0 l/m 2 min 0 min 2,3 UV-I 640 W/m 2,6 km/h (1 Bft)
23.05.2014 16:30 18,9 C 16,7 C 71 % 1010,6 hPa 0,0 l/m 2 min 0 min 2,4 UV-I 543 W/m 2,6 km/h (1 Bft)
23.05.2014 16:32 19,0 C 16,7 C 71 % 1010,5 hPa 0,0 l/m 2 min 0 min 1,5 UV-I 543 W/m 0,0 km/h (0 Bft)
23.05.2014 16:34 19,2 C 16,7 C 69 % 1010,6 hPa 0,0 l/m 2 min 0 min 1,7 UV-I 504 W/m 0,0 km/h (0 Bft)
23.05.2014 16:36 19,4 C 17,2 C 69 % 1010,6 hPa 0,0 l/m 2 min 0 min 2,3 UV-I 675 W/m 5,1 km/h (1 Bft)
23.05.2014 16:38 19,5 C 17,8 C 69 % 1010,6 hPa 0,0 l/m 2 min 0 min 2,2 UV-I 659 W/m 7,7 km/h (2 Bft)
23.05.2014 16:40 19,4 C 18,3 C 67 % 1010,5 hPa 0,0 l/m 2 min 0 min 2,1 UV-I 645 W/m 2,6 km/h (1 Bft)
23.05.2014 16:42 19,3 C 18,3 C 69 % 1010,5 hPa 0,0 l/m 2 min 0 min 2,1 UV-I 629 W/m 0,0 km/h (0 Bft)
23.05.2014 16:44 19,6 C 18,3 C 72 % 1010,5 hPa 0,0 l/m 2 min 0 min 2,1 UV-I 624 W/m 2,6 km/h (1 Bft)
23.05.2014 16:46 19,7 C 18,3 C 71 % 1010,4 hPa 0,0 l/m 2 min 0 min 2,1 UV-I 626 W/m 0,0 km/h (0 Bft)
23.05.2014 16:48 19,7 C 18,3 C 68 % 1010,5 hPa 0,0 l/m 2 min 0 min 2,0 UV-I 624 W/m 0,0 km/h (0 Bft)
23.05.2014 16:50 19,6 C 17,8 C 68 % 1010,5 hPa 0,0 l/m 2 min 0 min 2,0 UV-I 635 W/m 0,0 km/h (0 Bft)
23.05.2014 16:52 19,6 C 18,3 C 69 % 1010,5 hPa 0,0 l/m 2 min 0 min 2,0 UV-I 638 W/m 2,6 km/h (1 Bft)
23.05.2014 16:54 19,7 C 18,3 C 70 % 1010,5 hPa 0,0 l/m 2 min 0 min 1,9 UV-I 643 W/m 2,6 km/h (1 Bft)
23.05.2014 16:56 19,9 C 18,3 C 69 % 1010,5 hPa 0,0 l/m 2 min 0 min 1,9 UV-I 657 W/m 10,3 km/h (2 Bft)
23.05.2014 16:58 19,9 C 18,3 C 67 % 1010,5 hPa 0,0 l/m 2 min 0 min 2,0 UV-I 668 W/m 7,7 km/h (2 Bft)
23.05.2014 17:00 20,1 C 18,3 C 68 % 1010,5 hPa 0,0 l/m 2 min 0 min 1,8 UV-I 636 W/m 2,6 km/h (1 Bft)
23.05.2014 17:02 20,0 C 18,3 C 68 % 1010,4 hPa 0,0 l/m 2 min 0 min 1,8 UV-I 642 W/m 2,6 km/h (1 Bft)
23.05.2014 17:06 19,9 C 18,3 C 68 % 1010,3 hPa 0,0 l/m 2 min 0 min 1,8 UV-I 629 W/m 7,7 km/h (2 Bft)
23.05.2014 17:08 20,0 C 18,3 C 67 % 1010,3 hPa 0,0 l/m 2 min 0 min 1,7 UV-I 617 W/m 7,7 km/h (2 Bft)
23.05.2014 17:10 19,9 C 18,3 C 67 % 1010,3 hPa 0,0 l/m 2 min 0 min 1,7 UV-I 603 W/m 7,7 km/h (2 Bft)
23.05.2014 17:12 19,9 C 18,3 C 67 % 1010,3 hPa 0,0 l/m 2 min 0 min 1,6 UV-I 578 W/m 10,3 km/h (2 Bft)
23.05.2014 17:14 19,9 C 18,3 C 67 % 1010,3 hPa 0,0 l/m 2 min 0 min 1,6 UV-I 571 W/m 12,9 km/h (3 Bft)
23.05.2014 17:16 19,9 C 18,3 C 69 % 1010,3 hPa 0,0 l/m 2 min 0 min 1,5 UV-I 557 W/m 12,9 km/h (3 Bft)
23.05.2014 17:18 19,9 C 17,8 C 68 % 1010,3 hPa 0,0 l/m 2 min 0 min 1,5 UV-I 552 W/m 0,0 km/h (0 Bft)
23.05.2014 17:20 19,8 C 17,8 C 68 % 1010,4 hPa 0,0 l/m 2 min 0 min 1,5 UV-I 554 W/m 2,6 km/h (1 Bft)
23.05.2014 17:22 19,8 C 17,8 C 67 % 1010,3 hPa 0,0 l/m 2 min 0 min 1,4 UV-I 550 W/m 0,0 km/h (0 Bft)
23.05.2014 17:24 19,7 C 17,8 C 67 % 1010,4 hPa 0,0 l/m 2 min 0 min 1,4 UV-I 545 W/m 2,6 km/h (1 Bft)
23.05.2014 17:26 19,6 C 17,8 C 68 % 1010,3 hPa 0,0 l/m 2 min 0 min 1,4 UV-I 540 W/m 2,6 km/h (1 Bft)
23.05.2014 17:28 19,6 C 17,8 C 67 % 1010,3 hPa 0,0 l/m 2 min 0 min 1,4 UV-I 538 W/m 7,7 km/h (2 Bft)
23.05.2014 17:30 19,7 C 17,8 C 70 % 1010,4 hPa 0,0 l/m 2 min 0 min 1,0 UV-I 540 W/m 7,7 km/h (2 Bft)
23.05.2014 17:32 19,7 C 17,8 C 68 % 1010,4 hPa 0,0 l/m 2 min 0 min 1,3 UV-I 413 W/m 10,3 km/h (2 Bft)
23.05.2014 17:34 19,7 C 17,8 C 69 % 1010,3 hPa 0,0 l/m 2 min 0 min 1,3 UV-I 490 W/m 2,6 km/h (1 Bft)
23.05.2014 17:36 19,7 C 17,8 C 69 % 1010,3 hPa 0,0 l/m 2 min 0 min 1,2 UV-I 515 W/m 12,9 km/h (3 Bft)
23.05.2014 17:38 19,7 C 17,8 C 70 % 1010,3 hPa 0,0 l/m 2 min 0 min 1,3 UV-I 533 W/m 15,4 km/h (3 Bft)
23.05.2014 17:40 19,7 C 17,2 C 70 % 1010,2 hPa 0,0 l/m 2 min 0 min 1,2 UV-I 520 W/m 2,6 km/h (1 Bft)
23.05.2014 17:42 19,8 C 17,8 C 70 % 1010,2 hPa 0,0 l/m 2 min 0 min 1,1 UV-I 513 W/m 12,9 km/h (3 Bft)
23.05.2014 17:44 19,7 C 17,2 C 69 % 1010,2 hPa 0,0 l/m 0 min 0 min 0,6 UV-I 97 W/m 12,9 km/h (3 Bft)
23.05.2014 17:46 19,6 C 17,2 C 69 % 1010,1 hPa 0,0 l/m 2 min 0 min 0,8 UV-I 524 W/m 7,7 km/h (2 Bft)
23.05.2014 17:48 19,5 C 17,2 C 69 % 1010,2 hPa 0,0 l/m 2 min 0 min 0,5 UV-I 524 W/m 2,6 km/h (1 Bft)
23.05.2014 17:50 19,4 C 17,2 C 70 % 1010,1 hPa 0,0 l/m 2 min 0 min 1,0 UV-I 482 W/m 2,6 km/h (1 Bft)
23.05.2014 17:52 19,4 C 17,2 C 70 % 1010,1 hPa 0,0 l/m 2 min 0 min 1,0 UV-I 469 W/m 2,6 km/h (1 Bft)
23.05.2014 17:54 19,6 C 17,2 C 70 % 1010,1 hPa 0,0 l/m 2 min 0 min 0,9 UV-I 466 W/m 12,9 km/h (3 Bft)
23.05.2014 17:56 19,6 C 17,2 C 69 % 1010,1 hPa 0,0 l/m 2 min 0 min 0,9 UV-I 468 W/m 10,3 km/h (2 Bft)
23.05.2014 17:58 19,5 C 17,2 C 69 % 1010,1 hPa 0,0 l/m 2 min 0 min 0,9 UV-I 468 W/m 10,3 km/h (2 Bft)
23.05.2014 18:00 19,4 C 17,2 C 68 % 1010,1 hPa 0,0 l/m 2 min 0 min 0,8 UV-I 452 W/m 7,7 km/h (2 Bft)
23.05.2014 18:02 19,2 C 17,2 C 68 % 1010,1 hPa 0,0 l/m 2 min 0 min 0,8 UV-I 438 W/m 10,3 km/h (2 Bft)
23.05.2014 18:06 19,2 C 17,2 C 70 % 1010,0 hPa 0,0 l/m 2 min 0 min 0,7 UV-I 422 W/m 2,6 km/h (1 Bft)
23.05.2014 18:08 19,3 C 17,2 C 71 % 1010,1 hPa 0,0 l/m 2 min 0 min 0,7 UV-I 415 W/m 7,7 km/h (2 Bft)
23.05.2014 18:10 19,5 C 17,2 C 70 % 1010,0 hPa 0,0 l/m 2 min 0 min 0,6 UV-I 411 W/m 7,7 km/h (2 Bft)
23.05.2014 18:12 19,6 C 16,7 C 70 % 1010,0 hPa 0,0 l/m 2 min 0 min 0,6 UV-I 410 W/m 10,3 km/h (2 Bft)
23.05.2014 18:14 19,4 C 16,7 C 66 % 1010,0 hPa 0,0 l/m 2 min 0 min 0,5 UV-I 350 W/m 7,7 km/h (2 Bft)
23.05.2014 18:16 19,4 C 16,7 C 65 % 1010,0 hPa 0,0 l/m 2 min 0 min 0,6 UV-I 390 W/m 10,3 km/h (2 Bft)
23.05.2014 18:18 19,3 C 16,7 C 66 % 1010,0 hPa 0,0 l/m 0 min 0 min 0,6 UV-I 197 W/m 10,3 km/h (2 Bft)
23.05.2014 18:20 19,2 C 16,7 C 65 % 1009,9 hPa 0,0 l/m 2 min 0 min 0,5 UV-I 355 W/m 0,0 km/h (0 Bft)
23.05.2014 18:22 19,1 C 16,7 C 64 % 1009,9 hPa 0,0 l/m 2 min 0 min 0,0 UV-I 301 W/m 0,0 km/h (0 Bft)
23.05.2014 18:24 19,1 C 16,7 C 65 % 1009,9 hPa 0,0 l/m 0 min 0 min 0,0 UV-I 167 W/m 0,0 km/h (0 Bft)
23.05.2014 18:26 19,1 C 16,7 C 66 % 1009,9 hPa 0,0 l/m 0 min 0 min 0,0 UV-I 116 W/m 2,6 km/h (1 Bft)
23.05.2014 18:28 19,1 C 16,7 C 67 % 1009,9 hPa 0,0 l/m 0 min 0 min 0,0 UV-I 130 W/m 7,7 km/h (2 Bft)
23.05.2014 18:30 19,2 C 16,7 C 66 % 1009,9 hPa 0,0 l/m 0 min 0 min 0,0 UV-I 102 W/m 7,7 km/h (2 Bft)
23.05.2014 18:32 19,2 C 16,7 C 67 % 1009,8 hPa 0,0 l/m 0 min 0 min 0,0 UV-I 146 W/m 10,3 km/h (2 Bft)
23.05.2014 18:34 19,2 C 16,7 C 67 % 1009,8 hPa 0,0 l/m 0 min 0 min 0,0 UV-I 148 W/m 7,7 km/h (2 Bft)
23.05.2014 18:36 19,2 C 16,7 C 66 % 1009,8 hPa 0,0 l/m 0 min 0 min 0,0 UV-I 76 W/m 7,7 km/h (2 Bft)
23.05.2014 18:38 19,2 C 16,7 C 67 % 1009,9 hPa 0,0 l/m 0 min 0 min 0,0 UV-I 69 W/m 2,6 km/h (1 Bft)
23.05.2014 18:40 19,2 C 16,7 C 68 % 1009,8 hPa 0,0 l/m 0 min 0 min 0,0 UV-I 100 W/m 0,0 km/h (0 Bft)
23.05.2014 18:42 19,2 C 16,7 C 68 % 1009,8 hPa 0,0 l/m 0 min 0 min 0,0 UV-I 62 W/m 7,7 km/h (2 Bft)
23.05.2014 18:44 19,1 C 16,7 C 68 % 1009,8 hPa 0,0 l/m 0 min 0 min 0,0 UV-I 62 W/m 10,3 km/h (2 Bft)
23.05.2014 18:46 18,9 C 16,7 C 68 % 1009,8 hPa 0,0 l/m 0 min 0 min 0,0 UV-I 70 W/m 7,7 km/h (2 Bft)
23.05.2014 18:48 18,9 C 16,7 C 68 % 1009,8 hPa 0,0 l/m 0 min 0 min 0,0 UV-I 105 W/m 7,7 km/h (2 Bft)
23.05.2014 18:50 19,0 C 16,7 C 68 % 1009,7 hPa 0,0 l/m 0 min 0 min 0,0 UV-I 53 W/m 2,6 km/h (1 Bft)
23.05.2014 18:52 19,1 C 16,7 C 68 % 1009,8 hPa 0,0 l/m 0 min 0 min 0,0 UV-I 49 W/m 10,3 km/h (2 Bft)
23.05.2014 18:54 19,1 C 16,7 C 70 % 1009,7 hPa 0,0 l/m 0 min 0 min 0,0 UV-I 49 W/m 2,6 km/h (1 Bft)
23.05.2014 18:56 19,1 C 16,7 C 70 % 1009,8 hPa 0,0 l/m 0 min 0 min 0,0 UV-I 47 W/m 0,0 km/h (0 Bft)
23.05.2014 18:58 19,2 C 16,7 C 69 % 1009,8 hPa 0,0 l/m 0 min 0 min 0,0 UV-I 47 W/m 0,0 km/h (0 Bft)
23.05.2014 19:00 19,2 C 16,7 C 69 % 1009,8 hPa 0,0 l/m 0 min 0 min 0,0 UV-I 47 W/m 0,0 km/h (0 Bft)
23.05.2014 19:02 19,2 C 16,7 C 69 % 1009,9 hPa 0,0 l/m 0 min 0 min 0,0 UV-I 46 W/m 10,3 km/h (2 Bft)
23.05.2014 19:06 19,1 C 17,2 C 68 % 1009,9 hPa 0,0 l/m 0 min 0 min 0,0 UV-I 46 W/m 2,6 km/h (1 Bft)
23.05.2014 19:08 19,1 C 17,2 C 67 % 1010,0 hPa 0,0 l/m 0 min 0 min 0,0 UV-I 44 W/m 5,1 km/h (1 Bft)
23.05.2014 19:10 19,1 C 17,8 C 68 % 1010,0 hPa 0,0 l/m 0 min 0 min 0,0 UV-I 42 W/m 0,0 km/h (0 Bft)
23.05.2014 19:12 19,1 C 17,2 C 68 % 1009,9 hPa 0,0 l/m 0 min 0 min 0,0 UV-I 42 W/m 7,7 km/h (2 Bft)
23.05.2014 19:14 19,1 C 17,2 C 67 % 1009,9 hPa 0,0 l/m 0 min 0 min 0,0 UV-I 42 W/m 12,9 km/h (3 Bft)
23.05.2014 19:16 19,1 C 17,2 C 67 % 1010,0 hPa 0,0 l/m 0 min 0 min 0,0 UV-I 40 W/m 12,9 km/h (3 Bft)
23.05.2014 19:18 19,1 C 17,2 C 67 % 1010,0 hPa 0,0 l/m 0 min 0 min 0,0 UV-I 40 W/m 7,7 km/h (2 Bft)
23.05.2014 19:20 19,1 C 16,7 C 68 % 1010,0 hPa 0,0 l/m 0 min 0 min 0,0 UV-I 39 W/m 0,0 km/h (0 Bft)
23.05.2014 19:22 19,1 C 16,7 C 68 % 1010,0 hPa 0,0 l/m 0 min 0 min 0,0 UV-I 40 W/m 0,0 km/h (0 Bft)
23.05.2014 19:24 19,0 C 16,7 C 67 % 1010,0 hPa 0,0 l/m 0 min 0 min 0,0 UV-I 39 W/m 0,0 km/h (0 Bft)
23.05.2014 19:26 18,9 C 16,7 C 67 % 1010,0 hPa 0,0 l/m 0 min 0 min 0,0 UV-I 39 W/m 2,6 km/h (1 Bft)
23.05.2014 19:28 18,9 C 16,7 C 68 % 1010,1 hPa 0,0 l/m 0 min 0 min 0,0 UV-I 39 W/m 0,0 km/h (0 Bft)
23.05.2014 19:30 18,9 C 16,7 C 67 % 1010,1 hPa 0,0 l/m 0 min 0 min 0,0 UV-I 39 W/m 0,0 km/h (0 Bft)
23.05.2014 19:32 18,9 C 16,7 C 67 % 1010,1 hPa 0,0 l/m 0 min 0 min 0,0 UV-I 37 W/m 0,0 km/h (0 Bft)
23.05.2014 19:34 18,9 C 16,7 C 67 % 1010,1 hPa 0,0 l/m 0 min 0 min 0,0 UV-I 35 W/m 0,0 km/h (0 Bft)
23.05.2014 19:36 18,9 C 16,7 C 67 % 1010,0 hPa 0,0 l/m 0 min 0 min 0,0 UV-I 33 W/m 0,0 km/h (0 Bft)
23.05.2014 19:38 18,8 C 16,1 C 68 % 1010,0 hPa 0,0 l/m 0 min 0 min 0,0 UV-I 32 W/m 0,0 km/h (0 Bft)
23.05.2014 19:40 18,7 C 16,1 C 67 % 1010,0 hPa 0,0 l/m 0 min 0 min 0,0 UV-I 30 W/m 0,0 km/h (0 Bft)
23.05.2014 19:42 18,7 C 16,1 C 68 % 1010,0 hPa 0,0 l/m 0 min 0 min 0,0 UV-I 30 W/m 0,0 km/h (0 Bft)
23.05.2014 19:44 18,7 C 16,1 C 67 % 1010,0 hPa 0,0 l/m 0 min 0 min 0,0 UV-I 30 W/m 0,0 km/h (0 Bft)
23.05.2014 19:46 18,7 C 16,1 C 68 % 1009,9 hPa 0,0 l/m 0 min 0 min 0,0 UV-I 32 W/m 0,0 km/h (0 Bft)
23.05.2014 19:48 18,7 C 15,6 C 67 % 1010,0 hPa 0,0 l/m 0 min 0 min 0,0 UV-I 32 W/m 0,0 km/h (0 Bft)
23.05.2014 19:50 18,7 C 15,6 C 69 % 1010,0 hPa 0,0 l/m 0 min 0 min 0,0 UV-I 33 W/m 0,0 km/h (0 Bft)
23.05.2014 19:52 18,7 C 15,6 C 69 % 1010,0 hPa 0,0 l/m 0 min 0 min 0,0 UV-I 33 W/m 0,0 km/h (0 Bft)
23.05.2014 19:54 18,7 C 15,6 C 69 % 1010,1 hPa 0,0 l/m 0 min 0 min 0,0 UV-I 33 W/m 7,7 km/h (2 Bft)
23.05.2014 19:56 18,7 C 15,6 C 69 % 1010,1 hPa 0,0 l/m 0 min 0 min 0,0 UV-I 33 W/m 2,6 km/h (1 Bft)
23.05.2014 19:58 18,6 C 15,6 C 68 % 1010,1 hPa 0,0 l/m 0 min 0 min 0,0 UV-I 32 W/m 0,0 km/h (0 Bft)
23.05.2014 20:00 18,5 C 15,6 C 69 % 1010,1 hPa 0,0 l/m 0 min 0 min 0,0 UV-I 30 W/m 0,0 km/h (0 Bft)
23.05.2014 20:02 18,4 C 15,6 C 69 % 1010,1 hPa 0,0 l/m 0 min 0 min 0,0 UV-I 28 W/m 0,0 km/h (0 Bft)
23.05.2014 20:06 18,5 C 15,6 C 69 % 1010,0 hPa 0,0 l/m 0 min 0 min 0,0 UV-I 25 W/m 0,0 km/h (0 Bft)
23.05.2014 20:08 18,4 C 15,0 C 70 % 1010,0 hPa 0,0 l/m 0 min 0 min 0,0 UV-I 23 W/m 0,0 km/h (0 Bft)
23.05.2014 20:10 18,4 C 15,0 C 69 % 1010,0 hPa 0,0 l/m 0 min 0 min 0,0 UV-I 23 W/m 0,0 km/h (0 Bft)
23.05.2014 20:12 18,4 C 15,0 C 69 % 1010,0 hPa 0,0 l/m 0 min 0 min 0,0 UV-I 21 W/m 0,0 km/h (0 Bft)
23.05.2014 20:14 18,4 C 15,0 C 70 % 1010,0 hPa 0,0 l/m 0 min 0 min 0,0 UV-I 19 W/m 0,0 km/h (0 Bft)
23.05.2014 20:16 18,3 C 15,0 C 71 % 1010,0 hPa 0,0 l/m 0 min 0 min 0,0 UV-I 19 W/m 0,0 km/h (0 Bft)
23.05.2014 20:18 18,2 C 15,0 C 72 % 1010,0 hPa 0,0 l/m 0 min 0 min 0,0 UV-I 19 W/m 0,0 km/h (0 Bft)
23.05.2014 20:20 18,0 C 15,0 C 72 % 1010,0 hPa 0,0 l/m 0 min 0 min 0,0 UV-I 19 W/m 0,0 km/h (0 Bft)
23.05.2014 20:22 17,8 C 15,0 C 73 % 1010,0 hPa 0,0 l/m 0 min 0 min 0,0 UV-I 19 W/m 0,0 km/h (0 Bft)
23.05.2014 20:24 17,8 C 15,0 C 72 % 1010,0 hPa 0,0 l/m 0 min 0 min 0,0 UV-I 21 W/m 0,0 km/h (0 Bft)
23.05.2014 20:26 17,8 C 14,4 C 74 % 1010,0 hPa 0,0 l/m 0 min 0 min 0,0 UV-I 21 W/m 0,0 km/h (0 Bft)
23.05.2014 20:28 17,8 C 14,4 C 74 % 1010,0 hPa 0,0 l/m 0 min 0 min 0,0 UV-I 21 W/m 0,0 km/h (0 Bft)
23.05.2014 20:30 17,7 C 14,4 C 74 % 1010,0 hPa 0,0 l/m 0 min 0 min 0,0 UV-I 23 W/m 0,0 km/h (0 Bft)
23.05.2014 20:32 17,7 C 14,4 C 74 % 1010,0 hPa 0,0 l/m 0 min 0 min 0,0 UV-I 25 W/m 0,0 km/h (0 Bft)
23.05.2014 20:34 17,6 C 14,4 C 75 % 1010,0 hPa 0,0 l/m 0 min 0 min 0,0 UV-I 25 W/m 0,0 km/h (0 Bft)
23.05.2014 20:36 17,5 C 14,4 C 76 % 1010,0 hPa 0,0 l/m 0 min 0 min 0,0 UV-I 26 W/m 0,0 km/h (0 Bft)
23.05.2014 20:38 17,4 C 14,4 C 76 % 1010,0 hPa 0,0 l/m 0 min 0 min 0,0 UV-I 26 W/m 0,0 km/h (0 Bft)
23.05.2014 20:40 17,3 C 14,4 C 77 % 1010,0 hPa 0,0 l/m 0 min 0 min 0,0 UV-I 25 W/m 0,0 km/h (0 Bft)
23.05.2014 20:42 17,3 C 14,4 C 77 % 1010,0 hPa 0,0 l/m 0 min 0 min 0,0 UV-I 23 W/m 0,0 km/h (0 Bft)
23.05.2014 20:44 17,2 C 14,4 C 77 % 1010,0 hPa 0,0 l/m 0 min 0 min 0,0 UV-I 21 W/m 0,0 km/h (0 Bft)
23.05.2014 20:46 17,2 C 14,4 C 77 % 1010,0 hPa 0,0 l/m 0 min 0 min 0,0 UV-I 18 W/m 0,0 km/h (0 Bft)
23.05.2014 20:48 17,1 C 14,4 C 78 % 1010,0 hPa 0,0 l/m 0 min 0 min 0,0 UV-I 16 W/m 0,0 km/h (0 Bft)
23.05.2014 20:50 17,1 C 14,4 C 78 % 1010,0 hPa 0,0 l/m 0 min 0 min 0,0 UV-I 14 W/m 0,0 km/h (0 Bft)
23.05.2014 20:52 17,0 C 13,9 C 78 % 1010,0 hPa 0,0 l/m 0 min 0 min 0,0 UV-I 14 W/m 0,0 km/h (0 Bft)
23.05.2014 20:54 16,9 C 13,9 C 78 % 1010,0 hPa 0,0 l/m 0 min 0 min 0,0 UV-I 12 W/m 0,0 km/h (0 Bft)
23.05.2014 20:56 16,9 C 13,9 C 78 % 1010,0 hPa 0,0 l/m 0 min 0 min 0,0 UV-I 11 W/m 0,0 km/h (0 Bft)
23.05.2014 20:58 16,9 C 13,9 C 79 % 1010,1 hPa 0,0 l/m 0 min 0 min 0,0 UV-I 11 W/m 0,0 km/h (0 Bft)
23.05.2014 21:00 16,8 C 13,9 C 79 % 1010,2 hPa 0,0 l/m 0 min 0 min 0,0 UV-I 11 W/m 0,0 km/h (0 Bft)
23.05.2014 21:02 16,7 C 13,9 C 79 % 1010,2 hPa 0,0 l/m 0 min 0 min 0,0 UV-I 11 W/m 0,0 km/h (0 Bft)
23.05.2014 21:06 16,4 C 13,9 C 80 % 1010,2 hPa 0,0 l/m 0 min 0 min 0,0 UV-I 9 W/m 0,0 km/h (0 Bft)
23.05.2014 21:08 16,4 C 13,9 C 80 % 1010,2 hPa 0,0 l/m 0 min 0 min 0,0 UV-I 9 W/m 0,0 km/h (0 Bft)
23.05.2014 21:10 16,5 C 13,3 C 79 % 1010,3 hPa 0,0 l/m 0 min 0 min 0,0 UV-I 7 W/m 0,0 km/h (0 Bft)
23.05.2014 21:12 16,5 C 13,3 C 80 % 1010,2 hPa 0,0 l/m 0 min 0 min 0,0 UV-I 7 W/m 0,0 km/h (0 Bft)
23.05.2014 21:14 16,4 C 13,3 C 80 % 1010,3 hPa 0,0 l/m 0 min 0 min 0,0 UV-I 7 W/m 0,0 km/h (0 Bft)
23.05.2014 21:16 16,3 C 13,3 C 80 % 1010,3 hPa 0,0 l/m 0 min 0 min 0,0 UV-I 7 W/m 0,0 km/h (0 Bft)
23.05.2014 21:18 16,3 C 13,3 C 80 % 1010,3 hPa 0,0 l/m 0 min 0 min 0,0 UV-I 7 W/m 0,0 km/h (0 Bft)
23.05.2014 21:20 16,2 C 13,3 C 81 % 1010,3 hPa 0,0 l/m 0 min 0 min 0,0 UV-I 5 W/m 0,0 km/h (0 Bft)
23.05.2014 21:22 16,2 C 13,3 C 80 % 1010,3 hPa 0,0 l/m 0 min 0 min 0,0 UV-I 5 W/m 0,0 km/h (0 Bft)
23.05.2014 21:24 16,2 C 13,3 C 81 % 1010,3 hPa 0,0 l/m 0 min 0 min 0,0 UV-I 5 W/m 0,0 km/h (0 Bft)
23.05.2014 21:26 16,1 C 13,3 C 81 % 1010,3 hPa 0,0 l/m 0 min 0 min 0,0 UV-I 5 W/m 0,0 km/h (0 Bft)
23.05.2014 21:28 16,1 C 13,3 C 81 % 1010,4 hPa 0,0 l/m 0 min 0 min 0,0 UV-I 0 W/m 0,0 km/h (0 Bft)
23.05.2014 21:30 16,1 C 12,8 C 81 % 1010,4 hPa 0,0 l/m 0 min 0 min 0,0 UV-I 0 W/m 0,0 km/h (0 Bft)
23.05.2014 21:32 16,0 C 12,8 C 81 % 1010,4 hPa 0,0 l/m 0 min 0 min 0,0 UV-I 0 W/m 0,0 km/h (0 Bft)
23.05.2014 21:34 15,9 C 12,8 C 81 % 1010,4 hPa 0,0 l/m 0 min 0 min 0,0 UV-I 0 W/m 0,0 km/h (0 Bft)
23.05.2014 21:36 15,9 C 12,8 C 82 % 1010,4 hPa 0,0 l/m 0 min 0 min 0,0 UV-I 0 W/m 0,0 km/h (0 Bft)
23.05.2014 21:38 15,9 C 12,8 C 81 % 1010,4 hPa 0,0 l/m 0 min 0 min 0,0 UV-I 0 W/m 0,0 km/h (0 Bft)
23.05.2014 21:40 15,9 C 12,8 C 81 % 1010,4 hPa 0,0 l/m 0 min 0 min 0,0 UV-I 0 W/m 0,0 km/h (0 Bft)
23.05.2014 21:42 15,9 C 12,8 C 81 % 1010,3 hPa 0,0 l/m 0 min 0 min 0,0 UV-I 0 W/m 0,0 km/h (0 Bft)
23.05.2014 21:44 16,0 C 12,8 C 81 % 1010,3 hPa 0,0 l/m 0 min 0 min 0,0 UV-I 0 W/m 0,0 km/h (0 Bft)
23.05.2014 21:46 16,0 C 12,8 C 81 % 1010,4 hPa 0,0 l/m 0 min 0 min 0,0 UV-I 0 W/m 0,0 km/h (0 Bft)
23.05.2014 21:48 16,0 C 12,8 C 81 % 1010,4 hPa 0,0 l/m 0 min 0 min 0,0 UV-I 0 W/m 0,0 km/h (0 Bft)
23.05.2014 21:50 15,9 C 12,8 C 82 % 1010,4 hPa 0,0 l/m 0 min 0 min 0,0 UV-I 0 W/m 0,0 km/h (0 Bft)
23.05.2014 21:52 15,7 C 12,8 C 82 % 1010,4 hPa 0,0 l/m 0 min 0 min 0,0 UV-I 0 W/m 0,0 km/h (0 Bft)
23.05.2014 21:54 15,6 C 12,8 C 82 % 1010,4 hPa 0,0 l/m 0 min 0 min 0,0 UV-I 0 W/m 0,0 km/h (0 Bft)
23.05.2014 21:56 15,5 C 12,8 C 83 % 1010,4 hPa 0,0 l/m 0 min 0 min 0,0 UV-I 0 W/m 0,0 km/h (0 Bft)
23.05.2014 21:58 15,4 C 12,8 C 83 % 1010,4 hPa 0,0 l/m 0 min 0 min 0,0 UV-I 0 W/m 0,0 km/h (0 Bft)
23.05.2014 22:00 15,4 C 12,8 C 83 % 1010,4 hPa 0,0 l/m 0 min 0 min 0,0 UV-I 0 W/m 0,0 km/h (0 Bft)
23.05.2014 22:02 15,3 C 12,8 C 83 % 1010,4 hPa 0,0 l/m 0 min 0 min 0,0 UV-I 0 W/m 0,0 km/h (0 Bft)
23.05.2014 22:06 15,2 C 12,2 C 84 % 1010,4 hPa 0,0 l/m 0 min 0 min 0,0 UV-I 0 W/m 0,0 km/h (0 Bft)
23.05.2014 22:08 15,2 C 12,2 C 84 % 1010,5 hPa 0,0 l/m 0 min 0 min 0,0 UV-I 0 W/m 0,0 km/h (0 Bft)
23.05.2014 22:10 15,3 C 12,2 C 84 % 1010,5 hPa 0,0 l/m 0 min 0 min 0,0 UV-I 0 W/m 0,0 km/h (0 Bft)
23.05.2014 22:12 15,3 C 12,2 C 83 % 1010,5 hPa 0,0 l/m 0 min 0 min 0,0 UV-I 0 W/m 0,0 km/h (0 Bft)
23.05.2014 22:14 15,4 C 12,2 C 83 % 1010,5 hPa 0,0 l/m 0 min 0 min 0,0 UV-I 0 W/m 0,0 km/h (0 Bft)
23.05.2014 22:16 15,4 C 12,2 C 83 % 1010,5 hPa 0,0 l/m 0 min 0 min 0,0 UV-I 0 W/m 0,0 km/h (0 Bft)
23.05.2014 22:18 15,5 C 12,2 C 83 % 1010,6 hPa 0,0 l/m 0 min 0 min 0,0 UV-I 0 W/m 0,0 km/h (0 Bft)
23.05.2014 22:20 15,6 C 12,2 C 82 % 1010,6 hPa 0,0 l/m 0 min 0 min 0,0 UV-I 0 W/m 0,0 km/h (0 Bft)
23.05.2014 22:22 15,6 C 12,2 C 82 % 1010,7 hPa 0,0 l/m 0 min 0 min 0,0 UV-I 0 W/m 0,0 km/h (0 Bft)
23.05.2014 22:24 15,6 C 12,2 C 82 % 1010,6 hPa 0,0 l/m 0 min 0 min 0,0 UV-I 0 W/m 0,0 km/h (0 Bft)
23.05.2014 22:26 15,6 C 12,2 C 82 % 1010,7 hPa 0,0 l/m 0 min 0 min 0,0 UV-I 0 W/m 0,0 km/h (0 Bft)
23.05.2014 22:28 15,4 C 12,2 C 82 % 1010,7 hPa 0,0 l/m 0 min 0 min 0,0 UV-I 0 W/m 0,0 km/h (0 Bft)
23.05.2014 22:30 15,3 C 12,2 C 83 % 1010,7 hPa 0,0 l/m 0 min 0 min 0,0 UV-I 0 W/m 0,0 km/h (0 Bft)
23.05.2014 22:32 15,2 C 12,2 C 83 % 1010,6 hPa 0,0 l/m 0 min 0 min 0,0 UV-I 0 W/m 0,0 km/h (0 Bft)
23.05.2014 22:34 15,1 C 12,2 C 83 % 1010,6 hPa 0,0 l/m 0 min 0 min 0,0 UV-I 0 W/m 0,0 km/h (0 Bft)
23.05.2014 22:36 15,0 C 12,2 C 84 % 1010,6 hPa 0,0 l/m 0 min 0 min 0,0 UV-I 0 W/m 0,0 km/h (0 Bft)
23.05.2014 22:38 14,9 C 12,2 C 84 % 1010,6 hPa 0,0 l/m 0 min 0 min 0,0 UV-I 0 W/m 0,0 km/h (0 Bft)
23.05.2014 22:40 14,9 C 12,2 C 84 % 1010,7 hPa 0,0 l/m 0 min 0 min 0,0 UV-I 0 W/m 0,0 km/h (0 Bft)
23.05.2014 22:42 14,8 C 12,2 C 85 % 1010,7 hPa 0,0 l/m 0 min 0 min 0,0 UV-I 0 W/m 0,0 km/h (0 Bft)
23.05.2014 22:44 14,8 C 11,7 C 85 % 1010,7 hPa 0,0 l/m 0 min 0 min 0,0 UV-I 0 W/m 0,0 km/h (0 Bft)
23.05.2014 22:46 14,8 C 11,7 C 85 % 1010,7 hPa 0,0 l/m 0 min 0 min 0,0 UV-I 0 W/m 0,0 km/h (0 Bft)
23.05.2014 22:48 14,8 C 11,7 C 85 % 1010,7 hPa 0,0 l/m 0 min 0 min 0,0 UV-I 0 W/m 0,0 km/h (0 Bft)
23.05.2014 22:50 14,8 C 11,7 C 85 % 1010,6 hPa 0,0 l/m 0 min 0 min 0,0 UV-I 0 W/m 0,0 km/h (0 Bft)
23.05.2014 22:52 14,7 C 11,7 C 85 % 1010,6 hPa 0,0 l/m 0 min 0 min 0,0 UV-I 0 W/m 0,0 km/h (0 Bft)
23.05.2014 22:54 14,6 C 11,7 C 85 % 1010,6 hPa 0,0 l/m 0 min 0 min 0,0 UV-I 0 W/m 0,0 km/h (0 Bft)
23.05.2014 22:56 14,6 C 11,7 C 86 % 1010,6 hPa 0,0 l/m 0 min 0 min 0,0 UV-I 0 W/m 0,0 km/h (0 Bft)
23.05.2014 22:58 14,5 C 11,7 C 86 % 1010,6 hPa 0,0 l/m 0 min 0 min 0,0 UV-I 0 W/m 0,0 km/h (0 Bft)
23.05.2014 23:00 14,4 C 11,7 C 86 % 1010,6 hPa 0,0 l/m 0 min 0 min 0,0 UV-I 0 W/m 0,0 km/h (0 Bft)
23.05.2014 23:02 14,4 C 11,7 C 86 % 1010,6 hPa 0,0 l/m 0 min 0 min 0,0 UV-I 0 W/m 0,0 km/h (0 Bft)
23.05.2014 23:06 14,3 C 11,7 C 87 % 1010,6 hPa 0,0 l/m 0 min 0 min 0,0 UV-I 0 W/m 0,0 km/h (0 Bft)
23.05.2014 23:08 14,2 C 11,7 C 87 % 1010,6 hPa 0,0 l/m 0 min 0 min 0,0 UV-I 0 W/m 0,0 km/h (0 Bft)
23.05.2014 23:10 14,2 C 11,7 C 87 % 1010,6 hPa 0,0 l/m 0 min 0 min 0,0 UV-I 0 W/m 0,0 km/h (0 Bft)
23.05.2014 23:12 14,2 C 11,7 C 87 % 1010,5 hPa 0,0 l/m 0 min 0 min 0,0 UV-I 0 W/m 0,0 km/h (0 Bft)
23.05.2014 23:14 14,2 C 11,7 C 87 % 1010,6 hPa 0,0 l/m 0 min 0 min 0,0 UV-I 0 W/m 0,0 km/h (0 Bft)
23.05.2014 23:16 14,2 C 11,7 C 88 % 1010,5 hPa 0,0 l/m 0 min 0 min 0,0 UV-I 0 W/m 0,0 km/h (0 Bft)
23.05.2014 23:18 14,2 C 11,7 C 88 % 1010,6 hPa 0,0 l/m 0 min 0 min 0,0 UV-I 0 W/m 0,0 km/h (0 Bft)
23.05.2014 23:20 14,2 C 11,7 C 88 % 1010,6 hPa 0,0 l/m 0 min 0 min 0,0 UV-I 0 W/m 0,0 km/h (0 Bft)
23.05.2014 23:22 14,1 C 11,7 C 88 % 1010,6 hPa 0,0 l/m 0 min 0 min 0,0 UV-I 0 W/m 0,0 km/h (0 Bft)
23.05.2014 23:24 14,0 C 11,7 C 89 % 1010,6 hPa 0,0 l/m 0 min 0 min 0,0 UV-I 0 W/m 0,0 km/h (0 Bft)
23.05.2014 23:26 13,9 C 11,7 C 89 % 1010,6 hPa 0,0 l/m 0 min 0 min 0,0 UV-I 0 W/m 0,0 km/h (0 Bft)
23.05.2014 23:28 13,9 C 11,7 C 89 % 1010,5 hPa 0,0 l/m 0 min 0 min 0,0 UV-I 0 W/m 0,0 km/h (0 Bft)
23.05.2014 23:30 13,8 C 11,7 C 89 % 1010,5 hPa 0,0 l/m 0 min 0 min 0,0 UV-I 0 W/m 0,0 km/h (0 Bft)
23.05.2014 23:32 13,8 C 11,1 C 89 % 1010,5 hPa 0,0 l/m 0 min 0 min 0,0 UV-I 0 W/m 0,0 km/h (0 Bft)
23.05.2014 23:34 13,7 C 11,1 C 89 % 1010,6 hPa 0,0 l/m 0 min 0 min 0,0 UV-I 0 W/m 0,0 km/h (0 Bft)
23.05.2014 23:36 13,7 C 11,1 C 90 % 1010,6 hPa 0,0 l/m 0 min 0 min 0,0 UV-I 0 W/m 0,0 km/h (0 Bft)
23.05.2014 23:38 13,7 C 11,1 C 89 % 1010,6 hPa 0,0 l/m 0 min 0 min 0,0 UV-I 0 W/m 0,0 km/h (0 Bft)
23.05.2014 23:40 13,6 C 11,1 C 90 % 1010,6 hPa 0,0 l/m 0 min 0 min 0,0 UV-I 0 W/m 0,0 km/h (0 Bft)
23.05.2014 23:42 13,6 C 11,1 C 90 % 1010,6 hPa 0,0 l/m 0 min 0 min 0,0 UV-I 0 W/m 0,0 km/h (0 Bft)
23.05.2014 23:44 13,6 C 11,1 C 90 % 1010,5 hPa 0,0 l/m 0 min 0 min 0,0 UV-I 0 W/m 0,0 km/h (0 Bft)
23.05.2014 23:46 13,6 C 11,1 C 90 % 1010,5 hPa 0,0 l/m 0 min 0 min 0,0 UV-I 0 W/m 0,0 km/h (0 Bft)
23.05.2014 23:48 13,5 C 11,1 C 90 % 1010,5 hPa 0,0 l/m 0 min 0 min 0,0 UV-I 0 W/m 0,0 km/h (0 Bft)
23.05.2014 23:50 13,5 C 11,1 C 91 % 1010,6 hPa 0,0 l/m 0 min 0 min 0,0 UV-I 0 W/m 0,0 km/h (0 Bft)
23.05.2014 23:52 13,4 C 11,1 C 91 % 1010,6 hPa 0,0 l/m 0 min 0 min 0,0 UV-I 0 W/m 0,0 km/h (0 Bft)
23.05.2014 23:54 13,4 C 11,1 C 91 % 1010,6 hPa 0,0 l/m 0 min 0 min 0,0 UV-I 0 W/m 0,0 km/h (0 Bft)
23.05.2014 23:56 13,4 C 11,1 C 91 % 1010,6 hPa 0,0 l/m 0 min 0 min 0,0 UV-I 0 W/m 0,0 km/h (0 Bft)
23.05.2014 23:58 13,4 C 11,1 C 91 % 1010,6 hPa 0,0 l/m 0 min 0 min 0,0 UV-I 0 W/m 0,0 km/h (0 Bft)
_ Min-Zeit 03:36 23:32 18:22 05:38 - - - - - 00:00
Minimum _ 12,9 C 11,1 C 64 % 1006,9 hPa - - - - - 0,0 km/h (0 Bft)
_ Max-Zeit 17:00 16:00 04:05 14:32 08:06 15:30 00:02 15:24 15:32 00:10
Maximum _ 20,1 C 20,6 C 98 % 1010,7 hPa 0,2 l/m 2 min 2 min 3,1 UV-I 786 W/m 23,2 km/h
S-SO (4 Bft)
Durchschnitt _ 15,5 C 13,9 C 87 % 1009,3 hPa #1,0 l/m #2:42 h #2:52 h 1,4 UV-I 202 W/m 3,3 km/h (1 Bft)
© 2014 W. Hausmann